Time,TemperatureF,DewpointF,PressureIn,WindDirection,WindDirectionDegrees,WindSpeedMPH,WindSpeedGustMPH,Humidity,HourlyPrecipIn,Conditions,Clouds,dailyrainin,SoftwareType,DateUTC
2013-05-12 00:01:00,60.6,58.5,29.71,ESE,113,0.2,2.5,93,0.00,,,0.00,WUHU216HW,2013-05-12 04:01:00,
2013-05-12 00:06:00,60.6,58.5,29.70,NW,315,0.4,2.5,93,0.00,,,0.00,WUHU216HW,2013-05-12 04:06:00,
2013-05-12 00:11:00,60.6,58.5,29.70,SSW,203,1.8,1.8,93,0.00,,,0.00,WUHU216HW,2013-05-12 04:11:00,
2013-05-12 00:16:00,60.6,58.5,29.70,South,180,1.8,1.8,93,0.00,,,0.00,WUHU216HW,2013-05-12 04:16:00,
2013-05-12 00:17:00,60.6,58.5,29.70,WSW,248,1.3,1.8,93,0.00,,,0.00,WUHU216HW,2013-05-12 04:17:00,
2013-05-12 00:21:00,60.6,58.5,29.70,SE,135,1.3,2.0,93,0.00,,,0.00,WUHU216HW,2013-05-12 04:21:00,
2013-05-12 00:22:00,60.6,58.5,29.70,SSW,203,0.4,2.0,93,0.00,,,0.00,WUHU216HW,2013-05-12 04:22:00,
2013-05-12 00:26:00,60.6,58.5,29.70,SE,135,1.1,2.0,93,0.00,,,0.00,WUHU216HW,2013-05-12 04:26:00,
2013-05-12 00:27:00,60.6,58.5,29.70,SE,135,1.1,2.0,93,0.00,,,0.00,WUHU216HW,2013-05-12 04:27:00,
2013-05-12 00:31:00,60.6,58.5,29.70,SSE,158,1.1,1.8,93,0.00,,,0.00,WUHU216HW,2013-05-12 04:31:00,
2013-05-12 00:32:00,60.6,58.5,29.70,SSE,158,0.4,1.8,93,0.00,,,0.00,WUHU216HW,2013-05-12 04:32:00,
2013-05-12 00:36:00,60.6,58.5,29.70,SSW,203,2.2,2.2,93,0.00,,,0.00,WUHU216HW,2013-05-12 04:36:00,
2013-05-12 00:37:00,60.6,58.5,29.70,SSW,203,2.2,2.2,93,0.00,,,0.00,WUHU216HW,2013-05-12 04:37:00,
2013-05-12 00:38:00,60.4,58.3,29.70,South,180,1.3,2.2,93,0.00,,,0.00,WUHU216HW,2013-05-12 04:38:00,
2013-05-12 00:41:00,60.4,58.3,29.70,South,180,1.1,2.2,93,0.00,,,0.00,WUHU216HW,2013-05-12 04:41:00,
2013-05-12 00:42:00,60.4,58.3,29.70,South,180,1.1,2.2,93,0.00,,,0.00,WUHU216HW,2013-05-12 04:42:00,
2013-05-12 00:43:00,60.4,58.3,29.70,SSW,203,1.6,2.2,93,0.00,,,0.00,WUHU216HW,2013-05-12 04:43:00,
2013-05-12 00:47:00,60.4,58.3,29.70,South,180,3.6,3.6,93,0.00,,,0.00,WUHU216HW,2013-05-12 04:47:00,
2013-05-12 00:48:00,60.4,58.3,29.70,South,180,2.5,3.6,93,0.00,,,0.00,WUHU216HW,2013-05-12 04:48:00,
2013-05-12 00:52:00,60.4,58.3,29.70,South,180,1.8,3.6,93,0.00,,,0.00,WUHU216HW,2013-05-12 04:52:00,
2013-05-12 00:53:00,60.4,58.3,29.70,South,180,1.8,3.6,93,0.00,,,0.00,WUHU216HW,2013-05-12 04:53:00,
2013-05-12 00:57:00,60.4,58.3,29.69,SSW,203,1.8,3.1,93,0.00,,,0.00,WUHU216HW,2013-05-12 04:57:00,
2013-05-12 00:58:00,60.4,58.3,29.69,SW,225,1.8,3.1,93,0.00,,,0.00,WUHU216HW,2013-05-12 04:58:00,
2013-05-12 01:02:00,60.2,58.1,29.69,SSW,203,0.7,1.8,93,0.00,,,0.00,WUHU216HW,2013-05-12 05:02:00,
2013-05-12 01:03:00,60.2,58.1,29.69,North,0,0.4,1.8,93,0.00,,,0.00,WUHU216HW,2013-05-12 05:03:00,
2013-05-12 01:04:00,60.2,58.1,29.69,SSE,158,1.1,1.8,93,0.00,,,0.00,WUHU216HW,2013-05-12 05:04:00,
2013-05-12 01:07:00,60.2,58.1,29.69,ESE,113,1.3,2.2,93,0.00,,,0.00,WUHU216HW,2013-05-12 05:07:00,
2013-05-12 01:09:00,60.2,58.1,29.69,South,180,0.0,2.2,93,0.00,,,0.00,WUHU216HW,2013-05-12 05:09:00,
2013-05-12 01:12:00,60.2,58.1,29.69,West,270,0.0,2.2,93,0.00,,,0.00,WUHU216HW,2013-05-12 05:12:00,
2013-05-12 01:13:00,60.2,58.1,29.69,West,270,0.0,2.2,93,0.00,,,0.00,WUHU216HW,2013-05-12 05:13:00,
2013-05-12 01:14:00,60.2,58.1,29.69,West,270,0.0,2.2,93,0.00,,,0.00,WUHU216HW,2013-05-12 05:14:00,
2013-05-12 01:17:00,60.0,57.9,29.69,WNW,293,1.1,1.1,93,0.00,,,0.00,WUHU216HW,2013-05-12 05:17:00,
2013-05-12 01:18:00,60.0,57.9,29.69,WNW,293,1.1,1.1,93,0.00,,,0.00,WUHU216HW,2013-05-12 05:18:00,
2013-05-12 01:19:00,60.0,57.9,29.68,WNW,293,0.2,1.1,93,0.00,,,0.00,WUHU216HW,2013-05-12 05:19:00,
2013-05-12 01:23:00,60.0,57.9,29.68,NW,315,0.0,1.1,93,0.00,,,0.00,WUHU216HW,2013-05-12 05:23:00,
2013-05-12 01:24:00,60.0,57.9,29.68,North,0,0.7,1.1,93,0.00,,,0.00,WUHU216HW,2013-05-12 05:24:00,
2013-05-12 01:28:00,59.8,57.7,29.68,NW,315,0.0,2.7,93,0.00,,,0.00,WUHU216HW,2013-05-12 05:28:00,
2013-05-12 01:29:00,59.8,57.7,29.68,NW,315,0.4,2.7,93,0.00,,,0.00,WUHU216HW,2013-05-12 05:29:00,
2013-05-12 01:33:00,59.8,57.7,29.68,NW,315,0.0,2.7,93,0.00,,,0.00,WUHU216HW,2013-05-12 05:33:00,
2013-05-12 01:34:00,59.8,57.7,29.68,SSW,203,1.1,1.1,93,0.00,,,0.00,WUHU216HW,2013-05-12 05:34:00,
2013-05-12 01:35:00,59.8,57.7,29.68,SSW,203,1.1,1.1,93,0.00,,,0.00,WUHU216HW,2013-05-12 05:35:00,
2013-05-12 01:38:00,59.8,57.7,29.68,WSW,248,0.2,1.3,93,0.00,,,0.00,WUHU216HW,2013-05-12 05:38:00,
2013-05-12 01:39:00,59.7,57.6,29.68,SE,135,1.6,1.6,93,0.00,,,0.00,WUHU216HW,2013-05-12 05:39:00,
2013-05-12 01:40:00,59.7,57.6,29.68,SE,135,1.6,1.6,93,0.00,,,0.00,WUHU216HW,2013-05-12 05:40:00,
2013-05-12 01:43:00,59.7,57.6,29.69,South,180,1.3,1.6,93,0.00,,,0.00,WUHU216HW,2013-05-12 05:43:00,
2013-05-12 01:44:00,59.7,57.6,29.69,South,180,1.1,1.6,93,0.00,,,0.00,WUHU216HW,2013-05-12 05:44:00,
2013-05-12 01:45:00,59.7,57.6,29.69,South,180,1.1,1.6,93,0.00,,,0.00,WUHU216HW,2013-05-12 05:45:00,
2013-05-12 01:48:00,59.7,57.6,29.69,South,180,0.0,1.8,93,0.00,,,0.00,WUHU216HW,2013-05-12 05:48:00,
2013-05-12 01:50:00,59.7,57.6,29.68,South,180,1.6,1.8,93,0.00,,,0.00,WUHU216HW,2013-05-12 05:50:00,
2013-05-12 01:53:00,59.7,57.6,29.68,South,180,1.1,1.8,93,0.00,,,0.00,WUHU216HW,2013-05-12 05:53:00,
2013-05-12 01:55:00,59.7,57.6,29.68,South,180,2.2,2.2,93,0.00,,,0.00,WUHU216HW,2013-05-12 05:55:00,
2013-05-12 01:56:00,59.5,57.4,29.69,SSE,158,1.3,2.2,93,0.00,,,0.00,WUHU216HW,2013-05-12 05:56:00,
2013-05-12 01:58:00,59.5,57.4,29.68,SSW,203,0.2,2.2,93,0.00,,,0.00,WUHU216HW,2013-05-12 05:58:00,
2013-05-12 02:00:00,59.5,57.4,29.69,SW,225,0.2,2.2,93,0.00,,,0.00,WUHU216HW,2013-05-12 06:00:00,
2013-05-12 02:01:00,59.5,57.4,29.69,SW,225,0.2,2.2,93,0.00,,,0.00,WUHU216HW,2013-05-12 06:01:00,
2013-05-12 02:03:00,59.5,57.4,29.69,SW,225,0.4,2.2,93,0.00,,,0.00,WUHU216HW,2013-05-12 06:03:00,
2013-05-12 02:04:00,59.5,57.4,29.68,SW,225,0.2,2.2,93,0.00,,,0.00,WUHU216HW,2013-05-12 06:04:00,
2013-05-12 02:05:00,59.3,57.2,29.69,SW,225,0.4,1.6,93,0.00,,,0.00,WUHU216HW,2013-05-12 06:05:00,
2013-05-12 02:06:00,59.3,57.2,29.69,SW,225,0.4,1.6,93,0.00,,,0.00,WUHU216HW,2013-05-12 06:06:00,
2013-05-12 02:08:00,59.3,56.9,29.69,West,270,0.4,0.4,92,0.00,,,0.00,WUHU216HW,2013-05-12 06:08:00,
2013-05-12 02:09:00,59.3,56.9,29.69,West,270,0.4,0.4,92,0.00,,,0.00,WUHU216HW,2013-05-12 06:09:00,
2013-05-12 02:10:00,59.1,56.7,29.68,NW,315,0.9,0.9,92,0.00,,,0.00,WUHU216HW,2013-05-12 06:10:00,
2013-05-12 02:11:00,59.1,56.7,29.68,NW,315,0.9,0.9,92,0.00,,,0.00,WUHU216HW,2013-05-12 06:11:00,
2013-05-12 02:14:00,59.1,56.7,29.68,NNE,23,0.4,1.8,92,0.00,,,0.00,WUHU216HW,2013-05-12 06:14:00,
2013-05-12 02:16:00,58.9,56.2,29.68,WSW,248,1.1,1.8,91,0.00,,,0.00,WUHU216HW,2013-05-12 06:16:00,
2013-05-12 02:19:00,58.9,56.5,29.67,WSW,248,2.9,2.9,92,0.00,,,0.00,WUHU216HW,2013-05-12 06:19:00,
2013-05-12 02:21:00,58.9,56.5,29.67,NW,315,1.8,2.9,92,0.00,,,0.00,WUHU216HW,2013-05-12 06:21:00,
2013-05-12 02:22:00,58.9,56.5,29.67,WSW,248,1.3,2.9,92,0.00,,,0.00,WUHU216HW,2013-05-12 06:22:00,
2013-05-12 02:24:00,58.8,56.4,29.67,West,270,1.1,3.4,92,0.00,,,0.00,WUHU216HW,2013-05-12 06:24:00,
2013-05-12 02:26:00,58.8,56.1,29.67,WNW,293,0.9,3.4,91,0.00,,,0.00,WUHU216HW,2013-05-12 06:26:00,
2013-05-12 02:28:00,58.8,56.1,29.67,West,270,1.6,3.4,91,0.00,,,0.00,WUHU216HW,2013-05-12 06:28:00,
2013-05-12 02:29:00,58.8,56.1,29.67,West,270,1.8,3.4,91,0.00,,,0.00,WUHU216HW,2013-05-12 06:29:00,
2013-05-12 02:30:00,58.8,56.1,29.67,West,270,1.8,3.4,91,0.00,,,0.00,WUHU216HW,2013-05-12 06:30:00,
2013-05-12 02:31:00,58.8,56.1,29.66,WSW,248,2.2,3.4,91,0.00,,,0.00,WUHU216HW,2013-05-12 06:31:00,
2013-05-12 02:32:00,58.8,56.1,29.67,West,270,2.0,2.2,91,0.00,,,0.00,WUHU216HW,2013-05-12 06:32:00,
2013-05-12 02:33:00,58.8,56.1,29.67,WNW,293,2.2,2.2,91,0.00,,,0.00,WUHU216HW,2013-05-12 06:33:00,
2013-05-12 02:35:00,58.8,56.1,29.67,NW,315,0.9,2.2,91,0.00,,,0.00,WUHU216HW,2013-05-12 06:35:00,
2013-05-12 02:37:00,58.8,56.1,29.66,WNW,293,0.0,2.2,91,0.00,,,0.00,WUHU216HW,2013-05-12 06:37:00,
2013-05-12 02:39:00,58.8,56.1,29.66,West,270,0.7,2.2,91,0.00,,,0.00,WUHU216HW,2013-05-12 06:39:00,
2013-05-12 02:40:00,58.8,55.8,29.66,WNW,293,1.8,2.5,90,0.00,,,0.00,WUHU216HW,2013-05-12 06:40:00,
2013-05-12 02:41:00,58.8,55.8,29.66,NW,315,0.7,2.5,90,0.00,,,0.00,WUHU216HW,2013-05-12 06:41:00,
2013-05-12 02:42:00,58.8,55.8,29.66,NW,315,0.7,2.5,90,0.00,,,0.00,WUHU216HW,2013-05-12 06:42:00,
2013-05-12 02:44:00,58.4,55.4,29.65,NNW,338,0.9,2.5,90,0.00,,,0.00,WUHU216HW,2013-05-12 06:44:00,
2013-05-12 02:47:00,58.4,55.4,29.65,NNW,338,0.2,2.5,90,0.00,,,0.00,WUHU216HW,2013-05-12 06:47:00,
2013-05-12 02:48:00,58.4,55.4,29.65,WNW,293,1.8,2.5,90,0.00,,,0.00,WUHU216HW,2013-05-12 06:48:00,
2013-05-12 02:49:00,58.4,55.4,29.65,WNW,293,1.8,1.8,90,0.00,,,0.00,WUHU216HW,2013-05-12 06:49:00,
2013-05-12 02:52:00,58.2,55.3,29.66,WSW,248,0.4,1.8,90,0.00,,,0.00,WUHU216HW,2013-05-12 06:52:00,
2013-05-12 02:53:00,58.0,55.1,29.66,WSW,248,0.0,1.8,90,0.00,,,0.00,WUHU216HW,2013-05-12 06:53:00,
2013-05-12 02:54:00,58.0,55.1,29.66,West,270,1.1,1.8,90,0.00,,,0.00,WUHU216HW,2013-05-12 06:54:00,
2013-05-12 02:57:00,58.0,55.1,29.66,WSW,248,1.1,1.1,90,0.00,,,0.00,WUHU216HW,2013-05-12 06:57:00,
2013-05-12 02:58:00,58.0,55.1,29.66,WSW,248,1.1,1.1,90,0.00,,,0.00,WUHU216HW,2013-05-12 06:58:00,
2013-05-12 02:59:00,57.9,55.0,29.66,WSW,248,0.4,1.1,90,0.00,,,0.00,WUHU216HW,2013-05-12 06:59:00,
2013-05-12 03:03:00,57.9,55.3,29.66,NW,315,0.2,2.0,91,0.00,,,0.00,WUHU216HW,2013-05-12 07:03:00,
2013-05-12 03:05:00,57.7,55.1,29.66,WNW,293,0.2,2.0,91,0.00,,,0.00,WUHU216HW,2013-05-12 07:05:00,
2013-05-12 03:08:00,57.7,55.1,29.66,WNW,293,1.1,2.0,91,0.00,,,0.00,WUHU216HW,2013-05-12 07:08:00,
2013-05-12 03:09:00,57.7,55.1,29.66,NW,315,0.0,2.0,91,0.00,,,0.00,WUHU216HW,2013-05-12 07:09:00,
2013-05-12 03:10:00,57.7,55.1,29.67,NW,315,0.9,2.0,91,0.00,,,0.00,WUHU216HW,2013-05-12 07:10:00,
2013-05-12 03:13:00,57.7,55.1,29.67,WNW,293,1.8,1.8,91,0.00,,,0.00,WUHU216HW,2013-05-12 07:13:00,
2013-05-12 03:14:00,57.7,55.1,29.67,WNW,293,1.8,1.8,91,0.00,,,0.00,WUHU216HW,2013-05-12 07:14:00,
2013-05-12 03:15:00,57.7,55.1,29.67,West,270,1.1,1.8,91,0.00,,,0.00,WUHU216HW,2013-05-12 07:15:00,
2013-05-12 03:18:00,57.7,55.1,29.68,West,270,1.1,1.8,91,0.00,,,0.00,WUHU216HW,2013-05-12 07:18:00,
2013-05-12 03:19:00,57.7,55.1,29.68,West,270,1.1,1.8,91,0.00,,,0.00,WUHU216HW,2013-05-12 07:19:00,
2013-05-12 03:20:00,57.7,55.1,29.67,West,270,1.3,1.8,91,0.00,,,0.00,WUHU216HW,2013-05-12 07:20:00,
2013-05-12 03:21:00,57.7,54.8,29.68,WNW,293,0.9,1.8,90,0.00,,,0.00,WUHU216HW,2013-05-12 07:21:00,
2013-05-12 03:24:00,57.7,54.8,29.68,NW,315,0.0,1.3,90,0.00,,,0.00,WUHU216HW,2013-05-12 07:24:00,
2013-05-12 03:25:00,57.7,54.8,29.68,NW,315,0.0,1.3,90,0.00,,,0.00,WUHU216HW,2013-05-12 07:25:00,
2013-05-12 03:26:00,57.7,54.8,29.68,WNW,293,0.4,1.3,90,0.00,,,0.00,WUHU216HW,2013-05-12 07:26:00,
2013-05-12 03:29:00,57.7,54.8,29.68,West,270,0.9,1.6,90,0.00,,,0.00,WUHU216HW,2013-05-12 07:29:00,
2013-05-12 03:30:00,57.7,54.8,29.69,NW,315,0.4,1.6,90,0.00,,,0.00,WUHU216HW,2013-05-12 07:30:00,
2013-05-12 03:31:00,57.7,54.8,29.69,NW,315,0.4,1.6,90,0.00,,,0.00,WUHU216HW,2013-05-12 07:31:00,
2013-05-12 03:34:00,57.7,54.8,29.68,SSE,158,1.1,1.8,90,0.00,,,0.00,WUHU216HW,2013-05-12 07:34:00,
2013-05-12 03:36:00,57.7,54.8,29.69,NW,315,0.7,1.8,90,0.00,,,0.00,WUHU216HW,2013-05-12 07:36:00,
2013-05-12 03:40:00,57.9,55.0,29.68,North,0,0.7,3.1,90,0.00,,,0.00,WUHU216HW,2013-05-12 07:40:00,
2013-05-12 03:41:00,57.9,55.0,29.68,SW,225,0.7,3.1,90,0.00,,,0.00,WUHU216HW,2013-05-12 07:41:00,
2013-05-12 03:46:00,57.9,54.7,29.67,WNW,293,0.7,3.1,89,0.00,,,0.00,WUHU216HW,2013-05-12 07:46:00,
2013-05-12 03:51:00,57.7,54.5,29.67,WNW,293,1.1,1.1,89,0.00,,,0.00,WUHU216HW,2013-05-12 07:51:00,
2013-05-12 03:52:00,57.7,54.5,29.67,NW,315,0.2,1.1,89,0.00,,,0.00,WUHU216HW,2013-05-12 07:52:00,
2013-05-12 03:56:00,57.7,54.5,29.67,NW,315,0.0,1.6,89,0.00,,,0.00,WUHU216HW,2013-05-12 07:56:00,
2013-05-12 03:57:00,57.7,54.5,29.67,NW,315,0.0,1.6,89,0.00,,,0.00,WUHU216HW,2013-05-12 07:57:00,
2013-05-12 04:01:00,57.7,54.2,29.68,WNW,293,1.1,4.3,88,0.00,,,0.00,WUHU216HW,2013-05-12 08:01:00,
2013-05-12 04:02:00,57.7,54.2,29.68,WNW,293,2.0,4.3,88,0.00,,,0.00,WUHU216HW,2013-05-12 08:02:00,
2013-05-12 04:06:00,57.7,54.2,29.68,West,270,0.7,4.3,88,0.00,,,0.00,WUHU216HW,2013-05-12 08:06:00,
2013-05-12 04:07:00,57.7,54.2,29.68,West,270,1.3,4.3,88,0.00,,,0.00,WUHU216HW,2013-05-12 08:07:00,
2013-05-12 04:11:00,57.9,54.0,29.68,WSW,248,0.4,5.4,87,0.00,,,0.00,WUHU216HW,2013-05-12 08:11:00,
2013-05-12 04:12:00,57.9,54.0,29.68,WSW,248,0.2,5.4,87,0.00,,,0.00,WUHU216HW,2013-05-12 08:12:00,
2013-05-12 04:13:00,57.9,54.0,29.68,WSW,248,0.2,5.4,87,0.00,,,0.00,WUHU216HW,2013-05-12 08:13:00,
2013-05-12 04:17:00,57.9,53.4,29.67,WSW,248,4.5,5.4,85,0.00,,,0.00,WUHU216HW,2013-05-12 08:17:00,
2013-05-12 04:18:00,57.9,54.0,29.67,WSW,248,1.1,5.4,87,0.00,,,0.00,WUHU216HW,2013-05-12 08:18:00,
2013-05-12 04:22:00,57.9,54.0,29.67,South,180,0.4,4.5,87,0.00,,,0.00,WUHU216HW,2013-05-12 08:22:00,
2013-05-12 04:23:00,57.9,54.0,29.67,South,180,0.4,4.5,87,0.00,,,0.00,WUHU216HW,2013-05-12 08:23:00,
2013-05-12 04:27:00,57.9,54.0,29.67,South,180,0.4,1.1,87,0.00,,,0.00,WUHU216HW,2013-05-12 08:27:00,
2013-05-12 04:28:00,57.9,54.0,29.67,South,180,0.4,1.1,87,0.00,,,0.00,WUHU216HW,2013-05-12 08:28:00,
2013-05-12 04:50:00,57.1,53.3,29.68,NW,315,0.4,0.4,87,0.00,,,0.00,WUHU216HW,2013-05-12 08:50:00,
2013-05-12 04:51:00,57.1,53.3,29.68,West,270,2.0,2.0,87,0.00,,,0.00,WUHU216HW,2013-05-12 08:51:00,
2013-05-12 04:55:00,57.0,52.8,29.68,ESE,113,0.2,2.0,86,0.00,,,0.00,WUHU216HW,2013-05-12 08:55:00,
2013-05-12 04:57:00,57.0,52.5,29.68,East,90,1.1,2.0,85,0.00,,,0.00,WUHU216HW,2013-05-12 08:57:00,
2013-05-12 05:00:00,57.1,52.9,29.67,ESE,113,0.7,2.0,86,0.00,,,0.00,WUHU216HW,2013-05-12 09:00:00,
2013-05-12 05:02:00,57.0,52.5,29.67,ESE,113,0.9,1.6,85,0.00,,,0.00,WUHU216HW,2013-05-12 09:02:00,
2013-05-12 05:05:00,57.0,52.5,29.67,SE,135,0.4,1.1,85,0.00,,,0.00,WUHU216HW,2013-05-12 09:05:00,
2013-05-12 05:06:00,57.0,52.5,29.67,SE,135,0.4,1.1,85,0.00,,,0.00,WUHU216HW,2013-05-12 09:06:00,
2013-05-12 05:07:00,57.0,52.8,29.67,SE,135,0.0,1.1,86,0.00,,,0.00,WUHU216HW,2013-05-12 09:07:00,
2013-05-12 05:10:00,57.0,52.8,29.68,SSW,203,0.0,0.9,86,0.00,,,0.00,WUHU216HW,2013-05-12 09:10:00,
2013-05-12 05:11:00,57.0,52.8,29.68,SSW,203,0.4,0.9,86,0.00,,,0.00,WUHU216HW,2013-05-12 09:11:00,
2013-05-12 05:12:00,57.0,52.8,29.68,SSW,203,0.9,0.9,86,0.00,,,0.00,WUHU216HW,2013-05-12 09:12:00,
2013-05-12 05:15:00,56.8,53.0,29.69,SW,225,0.4,0.9,87,0.00,,,0.00,WUHU216HW,2013-05-12 09:15:00,
2013-05-12 05:16:00,56.8,53.0,29.69,SW,225,0.4,0.9,87,0.00,,,0.00,WUHU216HW,2013-05-12 09:16:00,
2013-05-12 05:17:00,56.8,53.0,29.69,WNW,293,0.9,0.9,87,0.00,,,0.00,WUHU216HW,2013-05-12 09:17:00,
2013-05-12 05:20:00,56.8,53.0,29.69,West,270,0.9,1.1,87,0.00,,,0.00,WUHU216HW,2013-05-12 09:20:00,
2013-05-12 05:21:00,56.8,53.0,29.69,West,270,0.2,1.1,87,0.00,,,0.00,WUHU216HW,2013-05-12 09:21:00,
2013-05-12 05:22:00,56.8,53.0,29.69,WNW,293,0.0,1.1,87,0.00,,,0.00,WUHU216HW,2013-05-12 09:22:00,
2013-05-12 05:25:00,56.8,52.7,29.69,SSE,158,0.7,1.1,86,0.00,,,0.00,WUHU216HW,2013-05-12 09:25:00,
2013-05-12 05:26:00,56.6,52.5,29.69,SE,135,0.7,1.1,86,0.00,,,0.00,WUHU216HW,2013-05-12 09:26:00,
2013-05-12 05:27:00,56.6,52.1,29.69,SSE,158,1.1,1.1,85,0.00,,,0.00,WUHU216HW,2013-05-12 09:27:00,
2013-05-12 05:30:00,56.8,52.7,29.69,SSW,203,0.2,1.1,86,0.00,,,0.00,WUHU216HW,2013-05-12 09:30:00,
2013-05-12 05:31:00,56.8,52.7,29.69,SSW,203,0.2,1.1,86,0.00,,,0.00,WUHU216HW,2013-05-12 09:31:00,
2013-05-12 05:33:00,56.8,52.7,29.69,ENE,68,0.2,1.1,86,0.00,,,0.00,WUHU216HW,2013-05-12 09:33:00,
2013-05-12 05:35:00,56.8,52.3,29.69,WNW,293,1.3,1.6,85,0.00,,,0.00,WUHU216HW,2013-05-12 09:35:00,
2013-05-12 05:36:00,56.8,52.3,29.69,WNW,293,1.3,1.6,85,0.00,,,0.00,WUHU216HW,2013-05-12 09:36:00,
2013-05-12 05:37:00,56.8,52.3,29.69,WNW,293,1.3,1.6,85,0.00,,,0.00,WUHU216HW,2013-05-12 09:37:00,
2013-05-12 05:38:00,56.8,52.3,29.69,West,270,1.1,2.2,85,0.00,,,0.00,WUHU216HW,2013-05-12 09:38:00,
2013-05-12 05:40:00,56.6,51.5,29.70,SSW,203,0.4,2.2,83,0.00,,,0.00,WUHU216HW,2013-05-12 09:40:00,
2013-05-12 05:41:00,56.6,51.8,29.70,ESE,113,1.3,2.2,84,0.00,,,0.00,WUHU216HW,2013-05-12 09:41:00,
2013-05-12 05:42:00,56.6,51.8,29.70,ESE,113,1.3,2.2,84,0.00,,,0.00,WUHU216HW,2013-05-12 09:42:00,
2013-05-12 05:43:00,56.4,51.6,29.70,SSE,158,0.7,2.2,84,0.00,,,0.00,WUHU216HW,2013-05-12 09:43:00,
2013-05-12 05:46:00,56.2,51.4,29.70,SSW,203,0.7,2.2,84,0.00,,,0.00,WUHU216HW,2013-05-12 09:46:00,
2013-05-12 05:47:00,56.2,51.4,29.70,SSW,203,0.7,2.2,84,0.00,,,0.00,WUHU216HW,2013-05-12 09:47:00,
2013-05-12 05:49:00,56.2,51.4,29.70,SSW,203,0.7,1.6,84,0.00,,,0.00,WUHU216HW,2013-05-12 09:49:00,
2013-05-12 05:51:00,56.2,51.4,29.70,SSW,203,0.7,1.6,84,0.00,,,0.00,WUHU216HW,2013-05-12 09:51:00,
2013-05-12 05:52:00,56.2,51.4,29.70,SSW,203,0.7,1.6,84,0.00,,,0.00,WUHU216HW,2013-05-12 09:52:00,
2013-05-12 05:53:00,56.2,51.4,29.70,SSW,203,0.7,1.6,84,0.00,,,0.00,WUHU216HW,2013-05-12 09:53:00,
2013-05-12 05:54:00,56.2,51.4,29.70,SSW,203,0.7,1.6,84,0.00,,,0.00,WUHU216HW,2013-05-12 09:54:00,
2013-05-12 06:00:00,55.3,50.9,29.71,NNW,338,1.1,1.1,85,0.00,,,0.00,WUHU216HW,2013-05-12 10:00:00,
2013-05-12 06:05:00,54.8,50.4,29.70,SE,135,1.3,2.0,85,0.00,,,0.00,WUHU216HW,2013-05-12 10:05:00,
2013-05-12 06:10:00,54.8,50.7,29.69,SSW,203,0.7,2.0,86,0.00,,,0.00,WUHU216HW,2013-05-12 10:10:00,
2013-05-12 06:15:00,54.6,50.5,29.69,SSW,203,0.4,0.7,86,0.00,,,0.00,WUHU216HW,2013-05-12 10:15:00,
2013-05-12 06:16:00,54.6,50.5,29.69,SSW,203,0.4,0.7,86,0.00,,,0.00,WUHU216HW,2013-05-12 10:16:00,
2013-05-12 06:20:00,54.4,50.3,29.70,WNW,293,0.4,0.7,86,0.00,,,0.00,WUHU216HW,2013-05-12 10:20:00,
2013-05-12 06:21:00,54.4,50.6,29.70,WNW,293,0.0,0.7,87,0.00,,,0.00,WUHU216HW,2013-05-12 10:21:00,
2013-05-12 06:25:00,54.3,50.5,29.70,West,270,0.9,1.1,87,0.00,,,0.00,WUHU216HW,2013-05-12 10:25:00,
2013-05-12 06:26:00,54.3,50.5,29.70,West,270,0.9,1.1,87,0.00,,,0.00,WUHU216HW,2013-05-12 10:26:00,
2013-05-12 06:30:00,54.3,50.8,29.71,WSW,248,0.4,2.0,88,0.00,,,0.00,WUHU216HW,2013-05-12 10:30:00,
2013-05-12 06:31:00,54.3,50.8,29.71,WSW,248,0.4,2.0,88,0.00,,,0.00,WUHU216HW,2013-05-12 10:31:00,
2013-05-12 06:35:00,54.1,50.6,29.70,NW,315,1.3,2.0,88,0.00,,,0.00,WUHU216HW,2013-05-12 10:35:00,
2013-05-12 06:36:00,54.1,50.6,29.70,NW,315,1.3,2.0,88,0.00,,,0.00,WUHU216HW,2013-05-12 10:36:00,
2013-05-12 06:40:00,54.1,50.6,29.70,SW,225,3.6,4.0,88,0.00,,,0.00,WUHU216HW,2013-05-12 10:40:00,
2013-05-12 06:41:00,54.1,50.3,29.70,WNW,293,2.2,4.0,87,0.00,,,0.00,WUHU216HW,2013-05-12 10:41:00,
2013-05-12 06:46:00,54.1,50.3,29.70,WNW,293,1.1,4.0,87,0.00,,,0.00,WUHU216HW,2013-05-12 10:46:00,
2013-05-12 06:47:00,54.1,50.3,29.70,WNW,293,1.3,3.6,87,0.00,,,0.00,WUHU216HW,2013-05-12 10:47:00,
2013-05-12 06:51:00,53.9,50.1,29.69,NE,45,1.8,1.8,87,0.00,,,0.00,WUHU216HW,2013-05-12 10:51:00,
2013-05-12 06:52:00,53.9,50.1,29.69,NE,45,1.8,1.8,87,0.00,,,0.00,WUHU216HW,2013-05-12 10:52:00,
2013-05-12 06:56:00,53.7,49.9,29.69,WSW,248,1.1,1.8,87,0.00,,,0.00,WUHU216HW,2013-05-12 10:56:00,
2013-05-12 06:57:00,53.7,49.9,29.69,WSW,248,1.1,1.8,87,0.00,,,0.00,WUHU216HW,2013-05-12 10:57:00,
2013-05-12 07:01:00,53.7,49.9,29.69,West,270,3.1,3.1,87,0.00,,,0.00,WUHU216HW,2013-05-12 11:01:00,
2013-05-12 07:02:00,53.7,49.9,29.69,SW,225,1.3,3.1,87,0.00,,,0.00,WUHU216HW,2013-05-12 11:02:00,
2013-05-12 07:06:00,53.5,49.7,29.70,West,270,1.8,3.1,87,0.00,,,0.00,WUHU216HW,2013-05-12 11:06:00,
2013-05-12 07:07:00,53.5,49.7,29.70,West,270,1.8,3.1,87,0.00,,,0.00,WUHU216HW,2013-05-12 11:07:00,
2013-05-12 07:12:00,53.5,49.7,29.70,West,270,3.4,4.0,87,0.00,,,0.00,WUHU216HW,2013-05-12 11:12:00,
2013-05-12 07:17:00,53.5,49.7,29.70,WSW,248,3.1,4.0,87,0.00,,,0.00,WUHU216HW,2013-05-12 11:17:00,
2013-05-12 07:18:00,53.4,49.6,29.70,SSE,158,1.1,3.6,87,0.00,,,0.00,WUHU216HW,2013-05-12 11:18:00,
2013-05-12 07:22:00,53.5,49.7,29.70,NW,315,1.3,3.6,87,0.00,,,0.00,WUHU216HW,2013-05-12 11:22:00,
2013-05-12 07:23:00,53.5,49.7,29.70,WNW,293,1.1,3.1,87,0.00,,,0.00,WUHU216HW,2013-05-12 11:23:00,
2013-05-12 07:27:00,53.5,49.7,29.70,West,270,2.0,3.1,87,0.00,,,0.00,WUHU216HW,2013-05-12 11:27:00,
2013-05-12 07:28:00,53.5,49.7,29.70,West,270,2.0,3.1,87,0.00,,,0.00,WUHU216HW,2013-05-12 11:28:00,
2013-05-12 07:32:00,53.5,49.7,29.70,WSW,248,2.9,3.6,87,0.00,,,0.00,WUHU216HW,2013-05-12 11:32:00,
2013-05-12 07:33:00,53.5,49.7,29.70,WSW,248,2.9,3.6,87,0.00,,,0.00,WUHU216HW,2013-05-12 11:33:00,
2013-05-12 07:37:00,53.7,49.9,29.71,West,270,2.2,3.6,87,0.00,,,0.00,WUHU216HW,2013-05-12 11:37:00,
2013-05-12 07:38:00,53.7,49.9,29.71,SW,225,1.1,3.6,87,0.00,,,0.00,WUHU216HW,2013-05-12 11:38:00,
2013-05-12 07:42:00,53.7,49.9,29.71,WNW,293,1.1,2.5,87,0.00,,,0.00,WUHU216HW,2013-05-12 11:42:00,
2013-05-12 07:43:00,53.9,49.8,29.71,WSW,248,1.8,2.5,86,0.00,,,0.00,WUHU216HW,2013-05-12 11:43:00,
2013-05-12 07:47:00,54.1,50.0,29.71,WNW,293,2.9,2.9,86,0.00,,,0.00,WUHU216HW,2013-05-12 11:47:00,
2013-05-12 07:48:00,54.1,50.0,29.71,WSW,248,1.3,2.9,86,0.00,,,0.00,WUHU216HW,2013-05-12 11:48:00,
2013-05-12 07:49:00,54.1,50.0,29.71,WSW,248,1.3,2.9,86,0.00,,,0.00,WUHU216HW,2013-05-12 11:49:00,
2013-05-12 07:53:00,53.9,49.5,29.70,WNW,293,3.1,3.4,85,0.00,,,0.00,WUHU216HW,2013-05-12 11:53:00,
2013-05-12 07:54:00,54.1,49.7,29.71,NW,315,2.2,3.4,85,0.00,,,0.00,WUHU216HW,2013-05-12 11:54:00,
2013-05-12 07:58:00,53.9,49.5,29.70,NW,315,1.8,3.4,85,0.00,,,0.00,WUHU216HW,2013-05-12 11:58:00,
2013-05-12 07:59:00,53.9,49.5,29.70,NW,315,1.6,3.4,85,0.00,,,0.00,WUHU216HW,2013-05-12 11:59:00,
2013-05-12 08:03:00,54.6,50.5,29.70,WNW,293,3.1,3.4,86,0.00,,,0.00,WUHU216HW,2013-05-12 12:03:00,
2013-05-12 08:04:00,55.0,50.9,29.69,West,270,1.1,3.4,86,0.00,,,0.00,WUHU216HW,2013-05-12 12:04:00,
2013-05-12 08:08:00,56.6,51.8,29.69,West,270,3.6,3.6,84,0.00,,,0.00,WUHU216HW,2013-05-12 12:08:00,
2013-05-12 08:09:00,57.0,51.9,29.69,NNW,338,1.1,3.6,83,0.00,,,0.00,WUHU216HW,2013-05-12 12:09:00,
2013-05-12 08:13:00,58.4,51.9,29.69,West,270,7.8,7.8,79,0.00,,,0.00,WUHU216HW,2013-05-12 12:13:00,
2013-05-12 08:14:00,58.6,51.8,29.69,WNW,293,2.7,7.8,78,0.00,,,0.00,WUHU216HW,2013-05-12 12:14:00,
2013-05-12 08:15:00,58.6,51.8,29.69,WNW,293,2.7,7.8,78,0.00,,,0.00,WUHU216HW,2013-05-12 12:15:00,
2013-05-12 08:19:00,58.8,50.0,29.69,NW,315,3.1,7.8,72,0.00,,,0.00,WUHU216HW,2013-05-12 12:19:00,
2013-05-12 08:20:00,58.8,51.0,29.69,SW,225,2.7,7.8,75,0.00,,,0.00,WUHU216HW,2013-05-12 12:20:00,
2013-05-12 08:24:00,57.9,50.5,29.69,SW,225,1.1,6.0,76,0.00,,,0.00,WUHU216HW,2013-05-12 12:24:00,
2013-05-12 08:25:00,57.9,50.5,29.69,NNW,338,1.3,4.5,76,0.00,,,0.00,WUHU216HW,2013-05-12 12:25:00,
2013-05-12 08:26:00,57.6,48.8,29.69,SSW,203,2.5,4.5,72,0.00,,,0.00,WUHU216HW,2013-05-12 12:26:00,
2013-05-12 08:29:00,57.2,49.1,29.69,North,0,1.6,4.5,74,0.00,,,0.00,WUHU216HW,2013-05-12 12:29:00,
2013-05-12 08:30:00,57.0,48.5,29.69,North,0,2.0,4.5,73,0.00,,,0.00,WUHU216HW,2013-05-12 12:30:00,
2013-05-12 08:31:00,57.0,48.5,29.69,North,0,2.0,3.6,73,0.00,,,0.00,WUHU216HW,2013-05-12 12:31:00,
2013-05-12 08:34:00,56.9,49.1,29.69,West,270,8.5,8.5,75,0.00,,,0.00,WUHU216HW,2013-05-12 12:34:00,
2013-05-12 08:35:00,56.9,49.1,29.69,West,270,8.5,8.5,75,0.00,,,0.00,WUHU216HW,2013-05-12 12:35:00,
2013-05-12 08:36:00,56.9,48.4,29.69,West,270,4.0,8.5,73,0.00,,,0.00,WUHU216HW,2013-05-12 12:36:00,
2013-05-12 08:40:00,56.9,47.7,29.69,North,0,6.3,8.5,71,0.00,,,0.00,WUHU216HW,2013-05-12 12:40:00,
2013-05-12 08:41:00,57.0,48.5,29.69,SW,225,4.3,8.5,73,0.00,,,0.00,WUHU216HW,2013-05-12 12:41:00,
2013-05-12 08:45:00,57.1,48.0,29.69,North,0,3.1,7.4,71,0.00,,,0.00,WUHU216HW,2013-05-12 12:45:00,
2013-05-12 08:46:00,57.1,48.0,29.69,North,0,3.1,7.4,71,0.00,,,0.00,WUHU216HW,2013-05-12 12:46:00,
2013-05-12 08:50:00,57.1,47.6,29.69,NW,315,2.0,6.3,70,0.00,,,0.00,WUHU216HW,2013-05-12 12:50:00,
2013-05-12 08:51:00,57.1,47.6,29.69,NW,315,2.0,6.3,70,0.00,,,0.00,WUHU216HW,2013-05-12 12:51:00,
2013-05-12 08:55:00,57.5,48.3,29.69,WNW,293,6.3,6.9,71,0.00,,,0.00,WUHU216HW,2013-05-12 12:55:00,
2013-05-12 08:56:00,57.5,48.3,29.69,WNW,293,6.3,6.9,71,0.00,,,0.00,WUHU216HW,2013-05-12 12:56:00,
2013-05-12 09:00:00,58.0,48.4,29.69,SW,225,4.5,6.9,70,0.00,,,0.00,WUHU216HW,2013-05-12 13:00:00,
2013-05-12 09:01:00,58.0,48.4,29.69,NW,315,5.4,6.3,70,0.00,,,0.00,WUHU216HW,2013-05-12 13:01:00,
2013-05-12 09:02:00,58.0,48.0,29.69,WNW,293,4.9,6.3,69,0.00,,,0.00,WUHU216HW,2013-05-12 13:02:00,
2013-05-12 09:05:00,58.2,48.6,29.69,WSW,248,4.7,5.4,70,0.00,,,0.00,WUHU216HW,2013-05-12 13:05:00,
2013-05-12 09:06:00,58.4,48.4,29.69,West,270,1.8,5.4,69,0.00,,,0.00,WUHU216HW,2013-05-12 13:06:00,
2013-05-12 09:07:00,58.4,48.4,29.69,WSW,248,3.4,5.4,69,0.00,,,0.00,WUHU216HW,2013-05-12 13:07:00,
2013-05-12 09:10:00,58.4,47.6,29.69,NNW,338,3.4,5.4,67,0.00,,,0.00,WUHU216HW,2013-05-12 13:10:00,
2013-05-12 09:11:00,58.4,48.0,29.69,North,0,3.8,4.9,68,0.00,,,0.00,WUHU216HW,2013-05-12 13:11:00,
2013-05-12 09:12:00,58.4,48.0,29.69,WNW,293,3.6,4.9,68,0.00,,,0.00,WUHU216HW,2013-05-12 13:12:00,
2013-05-12 09:16:00,58.3,48.0,29.69,WNW,293,4.5,5.4,68,0.00,,,0.00,WUHU216HW,2013-05-12 13:16:00,
2013-05-12 09:17:00,58.3,48.0,29.69,West,270,1.6,5.4,68,0.00,,,0.00,WUHU216HW,2013-05-12 13:17:00,
2013-05-12 09:18:00,58.5,48.5,29.69,NNW,338,3.4,6.3,69,0.00,,,0.00,WUHU216HW,2013-05-12 13:18:00,
2013-05-12 09:21:00,58.5,47.7,29.69,NW,315,1.3,6.5,67,0.00,,,0.00,WUHU216HW,2013-05-12 13:21:00,
2013-05-12 09:22:00,58.6,47.8,29.69,WNW,293,5.4,6.5,67,0.00,,,0.00,WUHU216HW,2013-05-12 13:22:00,
2013-05-12 09:23:00,58.6,47.4,29.69,NW,315,3.8,6.5,66,0.00,,,0.00,WUHU216HW,2013-05-12 13:23:00,
2013-05-12 09:26:00,58.8,48.0,29.69,North,0,0.9,6.5,67,0.00,,,0.00,WUHU216HW,2013-05-12 13:26:00,
2013-05-12 09:27:00,58.8,46.8,29.69,NNW,338,4.3,6.5,64,0.00,,,0.00,WUHU216HW,2013-05-12 13:27:00,
2013-05-12 09:28:00,58.8,47.6,29.69,NW,315,2.2,6.5,66,0.00,,,0.00,WUHU216HW,2013-05-12 13:28:00,
2013-05-12 09:29:00,58.8,48.0,29.69,NW,315,6.5,6.5,67,0.00,,,0.00,WUHU216HW,2013-05-12 13:29:00,
2013-05-12 09:31:00,58.8,47.6,29.69,WNW,293,2.9,6.5,66,0.00,,,0.00,WUHU216HW,2013-05-12 13:31:00,
2013-05-12 09:32:00,58.8,47.6,29.69,WNW,293,2.7,6.5,66,0.00,,,0.00,WUHU216HW,2013-05-12 13:32:00,
2013-05-12 09:33:00,58.8,48.0,29.69,NW,315,3.1,6.5,67,0.00,,,0.00,WUHU216HW,2013-05-12 13:33:00,
2013-05-12 09:34:00,59.0,48.2,29.69,North,0,2.5,6.5,67,0.00,,,0.00,WUHU216HW,2013-05-12 13:34:00,
2013-05-12 09:36:00,59.0,47.8,29.69,NW,315,2.5,6.5,66,0.00,,,0.00,WUHU216HW,2013-05-12 13:36:00,
2013-05-12 09:37:00,59.0,48.2,29.69,NNW,338,0.7,6.5,67,0.00,,,0.00,WUHU216HW,2013-05-12 13:37:00,
2013-05-12 09:38:00,59.0,48.2,29.69,NNW,338,0.7,6.5,67,0.00,,,0.00,WUHU216HW,2013-05-12 13:38:00,
2013-05-12 09:39:00,59.2,48.4,29.69,North,0,0.4,4.9,67,0.00,,,0.00,WUHU216HW,2013-05-12 13:39:00,
2013-05-12 09:41:00,59.4,48.5,29.69,NNE,23,1.1,3.1,67,0.00,,,0.00,WUHU216HW,2013-05-12 13:41:00,
2013-05-12 09:42:00,59.3,48.1,29.69,NNW,338,0.7,3.1,66,0.00,,,0.00,WUHU216HW,2013-05-12 13:42:00,
2013-05-12 09:43:00,59.3,48.5,29.69,WNW,293,2.5,2.5,67,0.00,,,0.00,WUHU216HW,2013-05-12 13:43:00,
2013-05-12 09:44:00,59.3,48.5,29.69,WNW,293,2.5,2.5,67,0.00,,,0.00,WUHU216HW,2013-05-12 13:44:00,
2013-05-12 09:46:00,59.4,47.8,29.69,North,0,3.6,3.6,65,0.00,,,0.00,WUHU216HW,2013-05-12 13:46:00,
2013-05-12 09:47:00,59.4,47.8,29.69,NNW,338,2.2,3.6,65,0.00,,,0.00,WUHU216HW,2013-05-12 13:47:00,
2013-05-12 09:48:00,59.4,47.8,29.69,WSW,248,2.5,3.6,65,0.00,,,0.00,WUHU216HW,2013-05-12 13:48:00,
2013-05-12 09:49:00,59.6,48.0,29.69,SW,225,5.8,5.8,65,0.00,,,0.00,WUHU216HW,2013-05-12 13:49:00,
2013-05-12 09:50:00,59.6,48.0,29.69,SW,225,5.8,5.8,65,0.00,,,0.00,WUHU216HW,2013-05-12 13:50:00,
2013-05-12 09:52:00,59.6,47.6,29.69,NW,315,3.8,6.3,64,0.00,,,0.00,WUHU216HW,2013-05-12 13:52:00,
2013-05-12 09:53:00,59.6,48.0,29.69,NNW,338,3.8,6.3,65,0.00,,,0.00,WUHU216HW,2013-05-12 13:53:00,
2013-05-12 09:54:00,59.6,47.6,29.69,West,270,4.7,6.3,64,0.00,,,0.00,WUHU216HW,2013-05-12 13:54:00,
2013-05-12 09:55:00,59.6,48.0,29.69,NNW,338,2.9,6.3,65,0.00,,,0.00,WUHU216HW,2013-05-12 13:55:00,
2013-05-12 09:57:00,59.6,48.0,29.69,NNW,338,2.5,6.3,65,0.00,,,0.00,WUHU216HW,2013-05-12 13:57:00,
2013-05-12 09:58:00,59.6,48.0,29.69,WNW,293,1.8,6.3,65,0.00,,,0.00,WUHU216HW,2013-05-12 13:58:00,
2013-05-12 09:59:00,59.8,48.1,29.69,NNE,23,1.6,6.3,65,0.00,,,0.00,WUHU216HW,2013-05-12 13:59:00,
2013-05-12 10:00:00,59.8,47.7,29.69,NW,315,6.3,6.3,64,0.00,,,0.00,WUHU216HW,2013-05-12 14:00:00,
2013-05-12 10:02:00,60.0,47.5,29.69,SW,225,1.3,6.3,63,0.00,,,0.00,WUHU216HW,2013-05-12 14:02:00,
2013-05-12 10:03:00,60.0,47.9,29.69,West,270,8.9,8.9,64,0.00,,,0.00,WUHU216HW,2013-05-12 14:03:00,
2013-05-12 10:04:00,60.2,48.1,29.69,WNW,293,3.6,8.9,64,0.00,,,0.00,WUHU216HW,2013-05-12 14:04:00,
2013-05-12 10:05:00,60.2,48.1,29.69,West,270,2.9,8.9,64,0.00,,,0.00,WUHU216HW,2013-05-12 14:05:00,
2013-05-12 10:07:00,60.2,47.2,29.69,West,270,5.8,8.9,62,0.00,,,0.00,WUHU216HW,2013-05-12 14:07:00,
2013-05-12 10:09:00,60.3,47.3,29.69,WNW,293,3.4,8.9,62,0.00,,,0.00,WUHU216HW,2013-05-12 14:09:00,
2013-05-12 10:10:00,60.5,47.1,29.69,NNW,338,2.5,8.9,61,0.00,,,0.00,WUHU216HW,2013-05-12 14:10:00,
2013-05-12 10:13:00,60.2,46.0,29.69,North,0,2.5,6.3,59,0.00,,,0.00,WUHU216HW,2013-05-12 14:13:00,
2013-05-12 10:14:00,60.2,46.4,29.69,West,270,8.7,8.7,60,0.00,,,0.00,WUHU216HW,2013-05-12 14:14:00,
2013-05-12 10:15:00,60.2,46.4,29.69,WNW,293,5.4,8.7,60,0.00,,,0.00,WUHU216HW,2013-05-12 14:15:00,
2013-05-12 10:18:00,60.2,46.4,29.69,WNW,293,3.1,8.7,60,0.00,,,0.00,WUHU216HW,2013-05-12 14:18:00,
2013-05-12 10:19:00,60.2,46.0,29.69,WNW,293,2.7,8.7,59,0.00,,,0.00,WUHU216HW,2013-05-12 14:19:00,
2013-05-12 10:20:00,60.4,47.0,29.69,WNW,293,5.8,8.7,61,0.00,,,0.00,WUHU216HW,2013-05-12 14:20:00,
2013-05-12 10:21:00,60.4,47.0,29.68,North,0,0.9,8.7,61,0.00,,,0.00,WUHU216HW,2013-05-12 14:21:00,
2013-05-12 10:23:00,60.6,46.3,29.69,North,0,3.1,8.7,59,0.00,,,0.00,WUHU216HW,2013-05-12 14:23:00,
2013-05-12 10:24:00,60.8,47.0,29.69,WNW,293,4.5,5.8,60,0.00,,,0.00,WUHU216HW,2013-05-12 14:24:00,
2013-05-12 10:25:00,60.8,47.0,29.69,West,270,3.8,5.8,60,0.00,,,0.00,WUHU216HW,2013-05-12 14:25:00,
2013-05-12 10:26:00,60.8,46.5,29.69,West,270,5.8,5.8,59,0.00,,,0.00,WUHU216HW,2013-05-12 14:26:00,
2013-05-12 10:29:00,61.0,47.6,29.69,ENE,68,4.7,5.8,61,0.00,,,0.00,WUHU216HW,2013-05-12 14:29:00,
2013-05-12 10:30:00,61.1,47.2,29.69,NW,315,4.3,5.8,60,0.00,,,0.00,WUHU216HW,2013-05-12 14:30:00,
2013-05-12 10:31:00,61.1,47.2,29.69,WNW,293,5.4,5.8,60,0.00,,,0.00,WUHU216HW,2013-05-12 14:31:00,
2013-05-12 10:34:00,61.1,46.3,29.69,West,270,6.9,6.9,58,0.00,,,0.00,WUHU216HW,2013-05-12 14:34:00,
2013-05-12 10:35:00,61.1,46.8,29.69,WNW,293,4.3,6.9,59,0.00,,,0.00,WUHU216HW,2013-05-12 14:35:00,
2013-05-12 10:36:00,61.1,46.8,29.68,WNW,293,2.7,6.9,59,0.00,,,0.00,WUHU216HW,2013-05-12 14:36:00,
2013-05-12 10:39:00,61.5,47.1,29.68,WNW,293,1.8,6.9,59,0.00,,,0.00,WUHU216HW,2013-05-12 14:39:00,
2013-05-12 10:40:00,61.5,47.1,29.68,WNW,293,2.5,6.9,59,0.00,,,0.00,WUHU216HW,2013-05-12 14:40:00,
2013-05-12 10:42:00,61.7,47.8,29.68,WNW,293,2.0,6.9,60,0.00,,,0.00,WUHU216HW,2013-05-12 14:42:00,
2013-05-12 10:44:00,61.9,47.5,29.68,WNW,293,2.5,4.3,59,0.00,,,0.00,WUHU216HW,2013-05-12 14:44:00,
2013-05-12 10:45:00,61.9,48.0,29.68,North,0,1.1,3.4,60,0.00,,,0.00,WUHU216HW,2013-05-12 14:45:00,
2013-05-12 10:46:00,61.9,48.0,29.68,NNW,338,2.0,3.4,60,0.00,,,0.00,WUHU216HW,2013-05-12 14:46:00,
2013-05-12 10:47:00,61.9,47.6,29.68,WNW,293,1.8,2.9,59,0.00,,,0.00,WUHU216HW,2013-05-12 14:47:00,
2013-05-12 10:49:00,62.1,47.8,29.68,West,270,3.8,3.8,59,0.00,,,0.00,WUHU216HW,2013-05-12 14:49:00,
2013-05-12 10:50:00,62.1,48.2,29.68,SW,225,3.6,3.8,60,0.00,,,0.00,WUHU216HW,2013-05-12 14:50:00,
2013-05-12 10:51:00,62.3,48.0,29.68,NW,315,4.0,4.0,59,0.00,,,0.00,WUHU216HW,2013-05-12 14:51:00,
2013-05-12 10:52:00,62.5,46.7,29.68,NNW,338,3.1,4.0,56,0.00,,,0.00,WUHU216HW,2013-05-12 14:52:00,
2013-05-12 10:55:00,62.5,46.2,29.68,West,270,4.0,7.6,55,0.00,,,0.00,WUHU216HW,2013-05-12 14:55:00,
2013-05-12 10:56:00,62.5,45.2,29.68,WNW,293,2.5,7.6,53,0.00,,,0.00,WUHU216HW,2013-05-12 14:56:00,
2013-05-12 10:57:00,62.5,46.2,29.68,WNW,293,5.4,7.6,55,0.00,,,0.00,WUHU216HW,2013-05-12 14:57:00,
2013-05-12 11:00:00,62.8,46.0,29.68,SW,225,2.5,7.6,54,0.00,,,0.00,WUHU216HW,2013-05-12 15:00:00,
2013-05-12 11:01:00,63.0,46.7,29.68,WNW,293,3.4,7.6,55,0.00,,,0.00,WUHU216HW,2013-05-12 15:01:00,
2013-05-12 11:02:00,63.0,46.7,29.68,WNW,293,3.4,7.6,55,0.00,,,0.00,WUHU216HW,2013-05-12 15:02:00,
2013-05-12 11:05:00,63.7,47.3,29.68,South,180,4.0,6.9,55,0.00,,,0.00,WUHU216HW,2013-05-12 15:05:00,
2013-05-12 11:06:00,63.9,43.8,29.68,SSE,158,4.7,5.4,48,0.00,,,0.00,WUHU216HW,2013-05-12 15:06:00,
2013-05-12 11:07:00,63.9,43.8,29.68,SSE,158,4.7,5.4,48,0.00,,,0.00,WUHU216HW,2013-05-12 15:07:00,
2013-05-12 11:11:00,65.0,47.5,29.68,SSW,203,6.0,6.0,53,0.00,,,0.00,WUHU216HW,2013-05-12 15:11:00,
2013-05-12 11:12:00,65.4,47.4,29.68,West,270,5.6,6.0,52,0.00,,,0.00,WUHU216HW,2013-05-12 15:12:00,
2013-05-12 11:13:00,65.5,46.9,29.68,WNW,293,5.4,6.0,51,0.00,,,0.00,WUHU216HW,2013-05-12 15:13:00,
2013-05-12 11:16:00,65.5,46.4,29.68,West,270,7.2,7.2,50,0.00,,,0.00,WUHU216HW,2013-05-12 15:16:00,
2013-05-12 11:17:00,65.4,45.7,29.68,WNW,293,6.5,7.2,49,0.00,,,0.00,WUHU216HW,2013-05-12 15:17:00,
2013-05-12 11:18:00,65.2,46.1,29.68,ENE,68,4.5,7.2,50,0.00,,,0.00,WUHU216HW,2013-05-12 15:18:00,
2013-05-12 11:21:00,65.0,44.8,29.68,SW,225,4.0,7.2,48,0.00,,,0.00,WUHU216HW,2013-05-12 15:21:00,
2013-05-12 11:22:00,65.0,44.8,29.68,SW,225,4.0,7.2,48,0.00,,,0.00,WUHU216HW,2013-05-12 15:22:00,
2013-05-12 11:23:00,64.9,44.2,29.68,NNE,23,3.6,7.2,47,0.00,,,0.00,WUHU216HW,2013-05-12 15:23:00,
2013-05-12 11:26:00,64.9,45.9,29.68,South,180,1.6,6.5,50,0.00,,,0.00,WUHU216HW,2013-05-12 15:26:00,
2013-05-12 11:27:00,64.9,45.9,29.68,South,180,1.6,6.5,50,0.00,,,0.00,WUHU216HW,2013-05-12 15:27:00,
2013-05-12 11:28:00,64.9,46.4,29.68,NW,315,2.5,6.5,51,0.00,,,0.00,WUHU216HW,2013-05-12 15:28:00,
2013-05-12 11:31:00,64.7,46.2,29.68,SSW,203,2.7,4.3,51,0.00,,,0.00,WUHU216HW,2013-05-12 15:31:00,
2013-05-12 11:32:00,64.7,46.2,29.68,SSW,203,2.7,4.3,51,0.00,,,0.00,WUHU216HW,2013-05-12 15:32:00,
2013-05-12 11:33:00,64.9,44.8,29.68,NNE,23,0.7,4.0,48,0.00,,,0.00,WUHU216HW,2013-05-12 15:33:00,
2013-05-12 11:37:00,65.3,45.7,29.67,West,270,8.1,8.1,49,0.00,,,0.00,WUHU216HW,2013-05-12 15:37:00,
2013-05-12 11:38:00,65.3,46.2,29.68,West,270,3.1,8.1,50,0.00,,,0.00,WUHU216HW,2013-05-12 15:38:00,
2013-05-12 11:42:00,66.3,46.6,29.67,WNW,293,1.6,8.1,49,0.00,,,0.00,WUHU216HW,2013-05-12 15:42:00,
2013-05-12 11:43:00,66.5,47.3,29.67,NE,45,1.3,8.1,50,0.00,,,0.00,WUHU216HW,2013-05-12 15:43:00,
2013-05-12 11:44:00,67.1,48.4,29.67,North,0,2.0,8.1,51,0.00,,,0.00,WUHU216HW,2013-05-12 15:44:00,
2013-05-12 11:47:00,68.0,48.1,29.68,NNW,338,6.5,6.5,49,0.00,,,0.00,WUHU216HW,2013-05-12 15:47:00,
2013-05-12 11:48:00,68.1,47.1,29.67,WNW,293,8.1,8.1,47,0.00,,,0.00,WUHU216HW,2013-05-12 15:48:00,
2013-05-12 11:49:00,68.1,47.1,29.67,West,270,3.1,8.1,47,0.00,,,0.00,WUHU216HW,2013-05-12 15:49:00,
2013-05-12 11:52:00,68.3,46.7,29.67,South,180,5.6,8.1,46,0.00,,,0.00,WUHU216HW,2013-05-12 15:52:00,
2013-05-12 11:53:00,68.3,46.7,29.67,South,180,5.6,8.1,46,0.00,,,0.00,WUHU216HW,2013-05-12 15:53:00,
2013-05-12 11:54:00,68.1,45.9,29.67,South,180,4.0,8.1,45,0.00,,,0.00,WUHU216HW,2013-05-12 15:54:00,
2013-05-12 11:57:00,68.0,47.0,29.67,SSW,203,3.1,8.1,47,0.00,,,0.00,WUHU216HW,2013-05-12 15:57:00,
2013-05-12 11:58:00,68.0,47.0,29.67,SSW,203,3.1,8.1,47,0.00,,,0.00,WUHU216HW,2013-05-12 15:58:00,
2013-05-12 12:00:00,67.8,45.6,29.67,ESE,113,6.5,8.1,45,0.00,,,0.00,WUHU216HW,2013-05-12 16:00:00,
2013-05-12 12:02:00,67.4,46.4,29.67,North,0,1.1,8.1,47,0.00,,,0.00,WUHU216HW,2013-05-12 16:02:00,
2013-05-12 12:03:00,67.2,45.7,29.67,NNE,23,4.5,8.1,46,0.00,,,0.00,WUHU216HW,2013-05-12 16:03:00,
2013-05-12 12:04:00,67.2,45.6,29.67,East,90,3.4,8.1,46,0.00,,,0.00,WUHU216HW,2013-05-12 16:04:00,
2013-05-12 12:05:00,67.2,45.6,29.67,South,180,6.3,8.1,46,0.00,,,0.00,WUHU216HW,2013-05-12 16:05:00,
2013-05-12 12:08:00,67.1,45.6,29.67,WNW,293,4.9,6.5,46,0.00,,,0.00,WUHU216HW,2013-05-12 16:08:00,
2013-05-12 12:09:00,67.1,45.6,29.67,WNW,293,4.9,6.5,46,0.00,,,0.00,WUHU216HW,2013-05-12 16:09:00,
2013-05-12 12:10:00,66.6,44.6,29.68,West,270,4.0,7.2,45,0.00,,,0.00,WUHU216HW,2013-05-12 16:10:00,
2013-05-12 12:11:00,66.2,44.2,29.67,West,270,4.7,7.2,45,0.00,,,0.00,WUHU216HW,2013-05-12 16:11:00,
2013-05-12 12:14:00,65.7,44.9,29.67,NW,315,1.8,7.2,47,0.00,,,0.00,WUHU216HW,2013-05-12 16:14:00,
2013-05-12 12:15:00,65.7,44.9,29.67,NW,315,1.8,7.2,47,0.00,,,0.00,WUHU216HW,2013-05-12 16:15:00,
2013-05-12 12:16:00,65.7,45.5,29.67,SW,225,7.2,7.2,48,0.00,,,0.00,WUHU216HW,2013-05-12 16:16:00,
2013-05-12 12:19:00,65.5,45.3,29.67,NW,315,0.4,7.2,48,0.00,,,0.00,WUHU216HW,2013-05-12 16:19:00,
2013-05-12 12:20:00,65.5,45.3,29.67,NW,315,0.4,7.2,48,0.00,,,0.00,WUHU216HW,2013-05-12 16:20:00,
2013-05-12 12:21:00,65.5,45.3,29.67,West,270,5.4,7.2,48,0.00,,,0.00,WUHU216HW,2013-05-12 16:21:00,
2013-05-12 12:22:00,65.3,45.1,29.67,NW,315,0.9,7.2,48,0.00,,,0.00,WUHU216HW,2013-05-12 16:22:00,
2013-05-12 12:24:00,65.2,45.6,29.67,WNW,293,0.9,7.2,49,0.00,,,0.00,WUHU216HW,2013-05-12 16:24:00,
2013-05-12 12:25:00,65.0,46.0,29.67,WSW,248,1.1,6.9,50,0.00,,,0.00,WUHU216HW,2013-05-12 16:25:00,
2013-05-12 12:26:00,64.8,45.8,29.67,WNW,293,5.6,6.9,50,0.00,,,0.00,WUHU216HW,2013-05-12 16:26:00,
2013-05-12 12:27:00,64.8,45.2,29.67,NW,315,6.5,6.9,49,0.00,,,0.00,WUHU216HW,2013-05-12 16:27:00,
2013-05-12 12:28:00,64.8,45.2,29.67,NW,315,6.5,6.9,49,0.00,,,0.00,WUHU216HW,2013-05-12 16:28:00,
2013-05-12 12:29:00,64.8,45.2,29.67,NW,315,3.4,6.9,49,0.00,,,0.00,WUHU216HW,2013-05-12 16:29:00,
2013-05-12 12:31:00,64.8,44.6,29.67,WNW,293,3.1,6.5,48,0.00,,,0.00,WUHU216HW,2013-05-12 16:31:00,
2013-05-12 12:33:00,65.2,45.0,29.67,WNW,293,1.6,6.5,48,0.00,,,0.00,WUHU216HW,2013-05-12 16:33:00,
2013-05-12 12:34:00,65.3,45.7,29.67,South,180,4.0,6.5,49,0.00,,,0.00,WUHU216HW,2013-05-12 16:34:00,
2013-05-12 12:35:00,65.5,44.7,29.67,WNW,293,1.3,6.5,47,0.00,,,0.00,WUHU216HW,2013-05-12 16:35:00,
2013-05-12 12:36:00,65.7,46.0,29.67,West,270,3.6,6.5,49,0.00,,,0.00,WUHU216HW,2013-05-12 16:36:00,
2013-05-12 12:38:00,65.9,45.6,29.67,West,270,1.3,6.3,48,0.00,,,0.00,WUHU216HW,2013-05-12 16:38:00,
2013-05-12 12:39:00,65.9,45.6,29.67,West,270,1.3,6.3,48,0.00,,,0.00,WUHU216HW,2013-05-12 16:39:00,
2013-05-12 12:40:00,65.7,45.5,29.67,WNW,293,4.0,6.3,48,0.00,,,0.00,WUHU216HW,2013-05-12 16:40:00,
2013-05-12 12:42:00,65.7,45.5,29.67,WNW,293,3.8,6.3,48,0.00,,,0.00,WUHU216HW,2013-05-12 16:42:00,
2013-05-12 12:44:00,65.3,45.1,29.67,NW,315,2.0,7.4,48,0.00,,,0.00,WUHU216HW,2013-05-12 16:44:00,
2013-05-12 12:45:00,65.2,45.0,29.67,West,270,4.9,7.4,48,0.00,,,0.00,WUHU216HW,2013-05-12 16:45:00,
2013-05-12 12:47:00,64.8,44.6,29.67,NNW,338,2.5,7.4,48,0.00,,,0.00,WUHU216HW,2013-05-12 16:47:00,
2013-05-12 12:49:00,64.6,44.4,29.67,NNW,338,5.1,7.4,48,0.00,,,0.00,WUHU216HW,2013-05-12 16:49:00,
2013-05-12 12:50:00,64.6,44.4,29.67,NNW,338,5.1,7.4,48,0.00,,,0.00,WUHU216HW,2013-05-12 16:50:00,
2013-05-12 12:53:00,64.8,44.6,29.68,WNW,293,4.7,5.1,48,0.00,,,0.00,WUHU216HW,2013-05-12 16:53:00,
2013-05-12 12:56:00,65.0,44.8,29.67,West,270,2.9,5.1,48,0.00,,,0.00,WUHU216HW,2013-05-12 16:56:00,
2013-05-12 12:57:00,65.2,43.8,29.67,NW,315,6.0,11.0,46,0.00,,,0.00,WUHU216HW,2013-05-12 16:57:00,
2013-05-12 12:58:00,65.2,43.8,29.67,West,270,8.5,11.0,46,0.00,,,0.00,WUHU216HW,2013-05-12 16:58:00,
2013-05-12 13:01:00,64.8,43.5,29.67,WSW,248,4.7,11.0,46,0.00,,,0.00,WUHU216HW,2013-05-12 17:01:00,
2013-05-12 13:02:00,64.8,43.5,29.67,WSW,248,4.7,11.0,46,0.00,,,0.00,WUHU216HW,2013-05-12 17:02:00,
2013-05-12 13:04:00,64.6,44.4,29.67,North,0,0.9,11.0,48,0.00,,,0.00,WUHU216HW,2013-05-12 17:04:00,
2013-05-12 13:06:00,64.4,43.7,29.68,NW,315,2.9,8.5,47,0.00,,,0.00,WUHU216HW,2013-05-12 17:06:00,
2013-05-12 13:07:00,64.4,44.2,29.67,SW,225,1.3,8.5,48,0.00,,,0.00,WUHU216HW,2013-05-12 17:07:00,
2013-05-12 13:09:00,64.4,43.7,29.67,West,270,5.6,5.6,47,0.00,,,0.00,WUHU216HW,2013-05-12 17:09:00,
2013-05-12 13:11:00,64.3,43.1,29.67,NNE,23,6.3,6.3,46,0.00,,,0.00,WUHU216HW,2013-05-12 17:11:00,
2013-05-12 13:12:00,64.3,43.1,29.68,WNW,293,3.4,6.3,46,0.00,,,0.00,WUHU216HW,2013-05-12 17:12:00,
2013-05-12 13:14:00,64.7,42.8,29.68,WSW,248,6.0,6.7,45,0.00,,,0.00,WUHU216HW,2013-05-12 17:14:00,
2013-05-12 13:17:00,65.1,42.0,29.68,WNW,293,6.0,7.8,43,0.00,,,0.00,WUHU216HW,2013-05-12 17:17:00,
2013-05-12 13:18:00,65.1,42.0,29.68,NW,315,8.7,8.7,43,0.00,,,0.00,WUHU216HW,2013-05-12 17:18:00,
2013-05-12 13:19:00,65.2,42.7,29.68,WNW,293,6.9,8.7,44,0.00,,,0.00,WUHU216HW,2013-05-12 17:19:00,
2013-05-12 13:22:00,65.6,42.4,29.67,SE,135,4.7,8.7,43,0.00,,,0.00,WUHU216HW,2013-05-12 17:22:00,
2013-05-12 13:23:00,65.8,42.0,29.68,NNE,23,2.7,8.7,42,0.00,,,0.00,WUHU216HW,2013-05-12 17:23:00,
2013-05-12 13:24:00,66.1,42.3,29.68,NNW,338,1.8,8.7,42,0.00,,,0.00,WUHU216HW,2013-05-12 17:24:00,
2013-05-12 13:27:00,66.9,43.6,29.67,South,180,4.9,8.7,43,0.00,,,0.00,WUHU216HW,2013-05-12 17:27:00,
2013-05-12 13:28:00,67.0,44.3,29.67,SE,135,1.6,7.2,44,0.00,,,0.00,WUHU216HW,2013-05-12 17:28:00,
2013-05-12 13:29:00,67.4,44.1,29.67,WNW,293,6.3,7.2,43,0.00,,,0.00,WUHU216HW,2013-05-12 17:29:00,
2013-05-12 13:32:00,67.8,43.8,29.67,South,180,2.0,6.7,42,0.00,,,0.00,WUHU216HW,2013-05-12 17:32:00,
2013-05-12 13:33:00,67.8,43.8,29.67,South,180,2.0,6.7,42,0.00,,,0.00,WUHU216HW,2013-05-12 17:33:00,
2013-05-12 13:34:00,67.9,43.9,29.67,WSW,248,3.4,7.6,42,0.00,,,0.00,WUHU216HW,2013-05-12 17:34:00,
2013-05-12 13:37:00,67.9,41.9,29.68,SSW,203,2.5,7.6,39,0.00,,,0.00,WUHU216HW,2013-05-12 17:37:00,
2013-05-12 13:38:00,67.9,41.9,29.68,SSW,203,2.5,7.6,39,0.00,,,0.00,WUHU216HW,2013-05-12 17:38:00,
2013-05-12 13:39:00,67.9,42.6,29.68,NNE,23,4.7,7.6,40,0.00,,,0.00,WUHU216HW,2013-05-12 17:39:00,
2013-05-12 13:43:00,67.2,40.6,29.68,SW,225,6.7,7.6,38,0.00,,,0.00,WUHU216HW,2013-05-12 17:43:00,
2013-05-12 13:44:00,66.7,40.8,29.68,West,270,5.4,6.7,39,0.00,,,0.00,WUHU216HW,2013-05-12 17:44:00,
2013-05-12 13:48:00,66.1,40.3,29.68,South,180,4.7,7.8,39,0.00,,,0.00,WUHU216HW,2013-05-12 17:48:00,
2013-05-12 13:49:00,66.1,41.6,29.68,West,270,8.5,8.5,41,0.00,,,0.00,WUHU216HW,2013-05-12 17:49:00,
2013-05-12 13:53:00,66.0,40.9,29.68,WNW,293,2.7,8.5,40,0.00,,,0.00,WUHU216HW,2013-05-12 17:53:00,
2013-05-12 13:54:00,66.0,40.9,29.68,WNW,293,2.7,8.5,40,0.00,,,0.00,WUHU216HW,2013-05-12 17:54:00,
2013-05-12 13:58:00,66.1,40.3,29.68,WSW,248,10.5,10.5,39,0.00,,,0.00,WUHU216HW,2013-05-12 17:58:00,
2013-05-12 13:59:00,66.1,40.3,29.68,WSW,248,10.5,10.5,39,0.00,,,0.00,WUHU216HW,2013-05-12 17:59:00,
2013-05-12 14:00:00,66.5,40.6,29.68,SSE,158,3.6,10.5,39,0.00,,,0.00,WUHU216HW,2013-05-12 18:00:00,
2013-05-12 14:04:00,66.9,39.6,29.68,South,180,1.3,10.5,37,0.00,,,0.00,WUHU216HW,2013-05-12 18:04:00,
2013-05-12 14:05:00,67.2,40.6,29.68,NNW,338,4.7,10.5,38,0.00,,,0.00,WUHU216HW,2013-05-12 18:05:00,
2013-05-12 14:09:00,67.2,38.4,29.68,NNW,338,3.8,8.3,35,0.00,,,0.00,WUHU216HW,2013-05-12 18:09:00,
2013-05-12 14:10:00,67.2,39.2,29.68,WNW,293,4.0,8.3,36,0.00,,,0.00,WUHU216HW,2013-05-12 18:10:00,
2013-05-12 14:14:00,67.6,38.8,29.68,SSE,158,6.3,8.3,35,0.00,,,0.00,WUHU216HW,2013-05-12 18:14:00,
2013-05-12 14:15:00,67.6,38.8,29.68,WNW,293,4.5,8.3,35,0.00,,,0.00,WUHU216HW,2013-05-12 18:15:00,
2013-05-12 14:19:00,67.4,41.4,29.68,WNW,293,5.1,6.9,39,0.00,,,0.00,WUHU216HW,2013-05-12 18:19:00,
2013-05-12 14:20:00,67.2,40.6,29.68,WNW,293,3.4,6.9,38,0.00,,,0.00,WUHU216HW,2013-05-12 18:20:00,
2013-05-12 14:24:00,66.5,42.0,29.68,SW,225,3.8,6.0,41,0.00,,,0.00,WUHU216HW,2013-05-12 18:24:00,
2013-05-12 14:25:00,66.3,42.4,29.68,SW,225,11.0,11.0,42,0.00,,,0.00,WUHU216HW,2013-05-12 18:25:00,
2013-05-12 14:29:00,66.1,42.2,29.68,North,0,2.5,11.0,42,0.00,,,0.00,WUHU216HW,2013-05-12 18:29:00,
2013-05-12 14:30:00,66.0,41.5,29.68,NW,315,6.0,11.0,41,0.00,,,0.00,WUHU216HW,2013-05-12 18:30:00,
2013-05-12 14:31:00,65.8,42.0,29.68,NNW,338,5.4,11.0,42,0.00,,,0.00,WUHU216HW,2013-05-12 18:31:00,
2013-05-12 14:34:00,65.4,41.0,29.68,North,0,4.7,11.0,41,0.00,,,0.00,WUHU216HW,2013-05-12 18:34:00,
2013-05-12 14:35:00,65.2,40.1,29.68,WNW,293,7.4,8.5,40,0.00,,,0.00,WUHU216HW,2013-05-12 18:35:00,
2013-05-12 14:36:00,65.1,40.7,29.68,SSW,203,2.7,8.5,41,0.00,,,0.00,WUHU216HW,2013-05-12 18:36:00,
2013-05-12 14:39:00,64.7,41.6,29.68,North,0,1.6,8.5,43,0.00,,,0.00,WUHU216HW,2013-05-12 18:39:00,
2013-05-12 14:40:00,64.7,40.3,29.68,WNW,293,2.9,8.5,41,0.00,,,0.00,WUHU216HW,2013-05-12 18:40:00,
2013-05-12 14:41:00,64.5,40.8,29.68,West,270,6.7,8.5,42,0.00,,,0.00,WUHU216HW,2013-05-12 18:41:00,
2013-05-12 14:42:00,64.5,40.8,29.68,West,270,6.7,8.5,42,0.00,,,0.00,WUHU216HW,2013-05-12 18:42:00,
2013-05-12 14:44:00,64.7,41.6,29.68,NNW,338,3.4,7.4,43,0.00,,,0.00,WUHU216HW,2013-05-12 18:44:00,
2013-05-12 14:45:00,64.7,41.6,29.68,WNW,293,4.0,6.7,43,0.00,,,0.00,WUHU216HW,2013-05-12 18:45:00,
2013-05-12 14:46:00,64.7,41.6,29.68,North,0,4.0,6.7,43,0.00,,,0.00,WUHU216HW,2013-05-12 18:46:00,
2013-05-12 14:47:00,64.7,41.6,29.68,NNW,338,2.9,6.7,43,0.00,,,0.00,WUHU216HW,2013-05-12 18:47:00,
2013-05-12 14:50:00,64.7,42.2,29.68,North,0,3.4,6.7,44,0.00,,,0.00,WUHU216HW,2013-05-12 18:50:00,
2013-05-12 14:51:00,64.7,41.6,29.68,SSW,203,4.0,6.3,43,0.00,,,0.00,WUHU216HW,2013-05-12 18:51:00,
2013-05-12 14:52:00,64.7,41.6,29.68,NNW,338,5.1,5.1,43,0.00,,,0.00,WUHU216HW,2013-05-12 18:52:00,
2013-05-12 14:55:00,64.9,41.1,29.68,NW,315,4.5,5.1,42,0.00,,,0.00,WUHU216HW,2013-05-12 18:55:00,
2013-05-12 14:56:00,64.9,41.1,29.68,WNW,293,7.6,7.6,42,0.00,,,0.00,WUHU216HW,2013-05-12 18:56:00,
2013-05-12 14:57:00,65.1,40.7,29.68,West,270,4.3,7.6,41,0.00,,,0.00,WUHU216HW,2013-05-12 18:57:00,
2013-05-12 15:00:00,65.2,42.0,29.68,North,0,3.4,7.6,43,0.00,,,0.00,WUHU216HW,2013-05-12 19:00:00,
2013-05-12 15:02:00,65.6,43.0,29.68,NNW,338,1.8,7.6,44,0.00,,,0.00,WUHU216HW,2013-05-12 19:02:00,
2013-05-12 15:06:00,66.5,43.9,29.67,NW,315,4.7,11.0,44,0.00,,,0.00,WUHU216HW,2013-05-12 19:06:00,
2013-05-12 15:07:00,66.7,42.8,29.68,WNW,293,2.7,11.0,42,0.00,,,0.00,WUHU216HW,2013-05-12 19:07:00,
2013-05-12 15:08:00,66.9,43.0,29.67,WNW,293,4.0,11.0,42,0.00,,,0.00,WUHU216HW,2013-05-12 19:08:00,
2013-05-12 15:11:00,67.0,43.1,29.67,West,270,4.9,11.0,42,0.00,,,0.00,WUHU216HW,2013-05-12 19:11:00,
2013-05-12 15:12:00,67.2,42.6,29.68,WSW,248,5.4,11.0,41,0.00,,,0.00,WUHU216HW,2013-05-12 19:12:00,
2013-05-12 15:13:00,67.2,41.9,29.68,NW,315,6.0,11.0,40,0.00,,,0.00,WUHU216HW,2013-05-12 19:13:00,
2013-05-12 15:16:00,66.9,42.3,29.68,NW,315,3.6,10.5,41,0.00,,,0.00,WUHU216HW,2013-05-12 19:16:00,
2013-05-12 15:17:00,66.9,41.0,29.68,SW,225,2.5,10.5,39,0.00,,,0.00,WUHU216HW,2013-05-12 19:17:00,
2013-05-12 15:18:00,66.7,40.8,29.68,West,270,6.9,10.5,39,0.00,,,0.00,WUHU216HW,2013-05-12 19:18:00,
2013-05-12 15:21:00,66.9,41.7,29.68,WSW,248,6.0,10.7,40,0.00,,,0.00,WUHU216HW,2013-05-12 19:21:00,
2013-05-12 15:22:00,66.9,41.7,29.68,WSW,248,6.0,10.7,40,0.00,,,0.00,WUHU216HW,2013-05-12 19:22:00,
2013-05-12 15:23:00,66.7,40.1,29.68,North,0,1.1,10.7,38,0.00,,,0.00,WUHU216HW,2013-05-12 19:23:00,
2013-05-12 15:27:00,66.5,38.6,29.68,NNW,338,6.9,10.7,36,0.00,,,0.00,WUHU216HW,2013-05-12 19:27:00,
2013-05-12 15:28:00,66.1,38.9,29.68,NNW,338,4.7,10.7,37,0.00,,,0.00,WUHU216HW,2013-05-12 19:28:00,
2013-05-12 15:32:00,64.9,37.8,29.68,West,270,4.3,9.6,37,0.00,,,0.00,WUHU216HW,2013-05-12 19:32:00,
2013-05-12 15:33:00,64.5,38.2,29.68,NNW,338,3.4,9.6,38,0.00,,,0.00,WUHU216HW,2013-05-12 19:33:00,
2013-05-12 15:37:00,64.7,39.0,29.68,WNW,293,2.0,5.1,39,0.00,,,0.00,WUHU216HW,2013-05-12 19:37:00,
2013-05-12 15:38:00,64.7,39.0,29.68,WNW,293,2.0,5.1,39,0.00,,,0.00,WUHU216HW,2013-05-12 19:38:00,
2013-05-12 15:39:00,65.2,40.8,29.68,West,270,4.0,5.1,41,0.00,,,0.00,WUHU216HW,2013-05-12 19:39:00,
2013-05-12 15:42:00,66.0,38.8,29.68,West,270,11.2,11.2,37,0.00,,,0.00,WUHU216HW,2013-05-12 19:42:00,
2013-05-12 15:43:00,66.0,38.8,29.68,SW,225,8.3,11.2,37,0.00,,,0.00,WUHU216HW,2013-05-12 19:43:00,
2013-05-12 15:44:00,65.8,37.2,29.69,West,270,5.4,11.2,35,0.00,,,0.00,WUHU216HW,2013-05-12 19:44:00,
2013-05-12 15:48:00,65.4,39.7,29.68,West,270,1.1,11.2,39,0.00,,,0.00,WUHU216HW,2013-05-12 19:48:00,
2013-05-12 15:49:00,65.6,38.5,29.69,North,0,3.4,11.2,37,0.00,,,0.00,WUHU216HW,2013-05-12 19:49:00,
2013-05-12 15:53:00,66.0,39.5,29.69,NNE,23,2.5,6.3,38,0.00,,,0.00,WUHU216HW,2013-05-12 19:53:00,
2013-05-12 15:54:00,66.0,38.8,29.68,West,270,6.5,6.5,37,0.00,,,0.00,WUHU216HW,2013-05-12 19:54:00,
2013-05-12 15:55:00,66.0,38.8,29.68,West,270,6.5,6.5,37,0.00,,,0.00,WUHU216HW,2013-05-12 19:55:00,
2013-05-12 15:58:00,66.6,39.3,29.69,NNW,338,7.6,7.6,37,0.00,,,0.00,WUHU216HW,2013-05-12 19:58:00,
2013-05-12 15:59:00,66.6,39.3,29.69,NNW,338,7.6,7.6,37,0.00,,,0.00,WUHU216HW,2013-05-12 19:59:00,
2013-05-12 16:00:00,66.6,37.1,29.68,NW,315,7.8,7.8,34,0.00,,,0.00,WUHU216HW,2013-05-12 20:00:00,
2013-05-12 16:03:00,66.4,39.1,29.69,North,0,5.4,7.8,37,0.00,,,0.00,WUHU216HW,2013-05-12 20:03:00,
2013-05-12 16:04:00,66.4,39.1,29.69,North,0,5.4,7.8,37,0.00,,,0.00,WUHU216HW,2013-05-12 20:04:00,
2013-05-12 16:05:00,66.2,37.5,29.69,WNW,293,2.2,7.8,35,0.00,,,0.00,WUHU216HW,2013-05-12 20:05:00,
2013-05-12 16:09:00,66.2,37.5,29.69,NNW,338,2.9,7.8,35,0.00,,,0.00,WUHU216HW,2013-05-12 20:09:00,
2013-05-12 16:10:00,66.2,37.5,29.69,NNE,23,4.7,6.3,35,0.00,,,0.00,WUHU216HW,2013-05-12 20:10:00,
2013-05-12 16:14:00,66.2,37.5,29.69,NW,315,4.0,7.8,35,0.00,,,0.00,WUHU216HW,2013-05-12 20:14:00,
2013-05-12 16:15:00,66.1,36.7,29.69,West,270,8.7,8.7,34,0.00,,,0.00,WUHU216HW,2013-05-12 20:15:00,
2013-05-12 16:19:00,66.2,36.8,29.69,WNW,293,4.9,8.7,34,0.00,,,0.00,WUHU216HW,2013-05-12 20:19:00,
2013-05-12 16:20:00,66.1,37.4,29.69,North,0,4.0,8.7,35,0.00,,,0.00,WUHU216HW,2013-05-12 20:20:00,
2013-05-12 16:24:00,65.2,35.9,29.69,NW,315,5.6,9.2,34,0.00,,,0.00,WUHU216HW,2013-05-12 20:24:00,
2013-05-12 16:25:00,65.0,35.0,29.69,NW,315,3.8,9.2,33,0.00,,,0.00,WUHU216HW,2013-05-12 20:25:00,
2013-05-12 16:26:00,64.8,35.6,29.69,West,270,1.6,9.2,34,0.00,,,0.00,WUHU216HW,2013-05-12 20:26:00,
2013-05-12 16:30:00,64.3,34.4,29.70,NNW,338,3.4,9.2,33,0.00,,,0.00,WUHU216HW,2013-05-12 20:30:00,
2013-05-12 16:31:00,63.9,33.2,29.69,WNW,293,6.9,9.2,32,0.00,,,0.00,WUHU216HW,2013-05-12 20:31:00,
2013-05-12 16:35:00,63.5,34.4,29.70,North,0,1.8,8.1,34,0.00,,,0.00,WUHU216HW,2013-05-12 20:35:00,
2013-05-12 16:36:00,63.7,33.8,29.69,WNW,293,2.0,8.1,33,0.00,,,0.00,WUHU216HW,2013-05-12 20:36:00,
2013-05-12 16:40:00,64.1,35.0,29.69,North,0,2.0,6.9,34,0.00,,,0.00,WUHU216HW,2013-05-12 20:40:00,
2013-05-12 16:41:00,64.8,35.6,29.69,East,90,5.4,5.4,34,0.00,,,0.00,WUHU216HW,2013-05-12 20:41:00,
2013-05-12 16:45:00,65.3,35.3,29.70,NNW,338,6.3,6.3,33,0.00,,,0.00,WUHU216HW,2013-05-12 20:45:00,
2013-05-12 16:46:00,65.3,35.3,29.70,WSW,248,5.6,6.3,33,0.00,,,0.00,WUHU216HW,2013-05-12 20:46:00,
2013-05-12 16:47:00,65.3,35.3,29.70,WSW,248,5.6,6.3,33,0.00,,,0.00,WUHU216HW,2013-05-12 20:47:00,
2013-05-12 16:50:00,65.7,34.1,29.70,NNE,23,3.4,6.3,31,0.00,,,0.00,WUHU216HW,2013-05-12 20:50:00,
2013-05-12 16:51:00,65.5,34.7,29.70,North,0,4.3,6.3,32,0.00,,,0.00,WUHU216HW,2013-05-12 20:51:00,
2013-05-12 16:52:00,65.5,34.7,29.70,North,0,4.3,6.3,32,0.00,,,0.00,WUHU216HW,2013-05-12 20:52:00,
2013-05-12 16:55:00,66.1,36.0,29.70,North,0,3.4,5.6,33,0.00,,,0.00,WUHU216HW,2013-05-12 20:55:00,
2013-05-12 16:56:00,66.4,36.3,29.70,West,270,2.0,5.6,33,0.00,,,0.00,WUHU216HW,2013-05-12 20:56:00,
2013-05-12 16:57:00,66.4,36.3,29.70,West,270,2.0,5.6,33,0.00,,,0.00,WUHU216HW,2013-05-12 20:57:00,
2013-05-12 17:00:00,66.9,35.8,29.70,NNW,338,3.4,4.9,32,0.00,,,0.00,WUHU216HW,2013-05-12 21:00:00,
2013-05-12 17:01:00,66.7,34.0,29.70,NW,315,4.7,4.9,30,0.00,,,0.00,WUHU216HW,2013-05-12 21:01:00,
2013-05-12 17:02:00,66.7,34.9,29.70,NNW,338,2.9,4.7,31,0.00,,,0.00,WUHU216HW,2013-05-12 21:02:00,
2013-05-12 17:05:00,67.2,36.9,29.71,NW,315,4.0,6.0,33,0.00,,,0.00,WUHU216HW,2013-05-12 21:05:00,
2013-05-12 17:06:00,67.4,36.3,29.70,NW,315,6.7,6.7,32,0.00,,,0.00,WUHU216HW,2013-05-12 21:06:00,
2013-05-12 17:07:00,67.4,34.7,29.71,NNW,338,3.1,6.7,30,0.00,,,0.00,WUHU216HW,2013-05-12 21:07:00,
2013-05-12 17:10:00,66.5,33.9,29.71,West,270,4.7,6.9,30,0.00,,,0.00,WUHU216HW,2013-05-12 21:10:00,
2013-05-12 17:11:00,66.3,33.7,29.71,North,0,3.8,6.9,30,0.00,,,0.00,WUHU216HW,2013-05-12 21:11:00,
2013-05-12 17:12:00,66.2,34.4,29.71,SW,225,3.4,6.9,31,0.00,,,0.00,WUHU216HW,2013-05-12 21:12:00,
2013-05-12 17:16:00,66.2,36.0,29.71,NNE,23,4.7,7.4,33,0.00,,,0.00,WUHU216HW,2013-05-12 21:16:00,
2013-05-12 17:17:00,66.2,36.0,29.71,NNE,23,4.7,7.4,33,0.00,,,0.00,WUHU216HW,2013-05-12 21:17:00,
2013-05-12 17:21:00,66.7,34.9,29.71,WNW,293,3.4,7.4,31,0.00,,,0.00,WUHU216HW,2013-05-12 21:21:00,
2013-05-12 17:22:00,66.9,35.1,29.71,North,0,1.8,7.4,31,0.00,,,0.00,WUHU216HW,2013-05-12 21:22:00,
2013-05-12 17:23:00,66.9,35.1,29.71,North,0,1.8,7.4,31,0.00,,,0.00,WUHU216HW,2013-05-12 21:23:00,
2013-05-12 17:26:00,67.4,35.5,29.71,North,0,2.7,6.7,31,0.00,,,0.00,WUHU216HW,2013-05-12 21:26:00,
2013-05-12 17:27:00,67.2,34.5,29.72,NNE,23,2.5,6.7,30,0.00,,,0.00,WUHU216HW,2013-05-12 21:27:00,
2013-05-12 17:28:00,67.2,34.5,29.72,NNE,23,2.5,6.7,30,0.00,,,0.00,WUHU216HW,2013-05-12 21:28:00,
2013-05-12 17:31:00,67.2,34.5,29.72,West,270,5.8,6.7,30,0.00,,,0.00,WUHU216HW,2013-05-12 21:31:00,
2013-05-12 17:32:00,67.2,34.5,29.72,NNE,23,2.5,6.7,30,0.00,,,0.00,WUHU216HW,2013-05-12 21:32:00,
2013-05-12 17:33:00,67.2,34.5,29.72,NNE,23,2.5,6.7,30,0.00,,,0.00,WUHU216HW,2013-05-12 21:33:00,
2013-05-12 17:34:00,67.6,34.9,29.72,WNW,293,2.0,6.3,30,0.00,,,0.00,WUHU216HW,2013-05-12 21:34:00,
2013-05-12 17:36:00,67.8,35.1,29.72,West,270,6.5,10.1,30,0.00,,,0.00,WUHU216HW,2013-05-12 21:36:00,
2013-05-12 17:37:00,68.0,34.4,29.72,WNW,293,6.3,10.1,29,0.00,,,0.00,WUHU216HW,2013-05-12 21:37:00,
2013-05-12 17:38:00,68.0,35.2,29.72,North,0,1.8,10.1,30,0.00,,,0.00,WUHU216HW,2013-05-12 21:38:00,
2013-05-12 17:39:00,68.0,35.2,29.72,North,0,1.8,10.1,30,0.00,,,0.00,WUHU216HW,2013-05-12 21:39:00,
2013-05-12 17:41:00,68.5,35.7,29.72,NW,315,5.4,10.1,30,0.00,,,0.00,WUHU216HW,2013-05-12 21:41:00,
2013-05-12 17:43:00,68.1,33.6,29.72,NW,315,4.9,10.1,28,0.00,,,0.00,WUHU216HW,2013-05-12 21:43:00,
2013-05-12 17:44:00,68.1,34.4,29.73,ENE,68,4.3,10.1,29,0.00,,,0.00,WUHU216HW,2013-05-12 21:44:00,
2013-05-12 17:46:00,66.4,32.1,29.72,West,270,2.0,6.5,28,0.00,,,0.00,WUHU216HW,2013-05-12 21:46:00,
2013-05-12 17:48:00,65.9,32.5,29.73,North,0,5.4,6.5,29,0.00,,,0.00,WUHU216HW,2013-05-12 21:48:00,
2013-05-12 17:49:00,65.5,32.2,29.73,NNW,338,4.0,6.5,29,0.00,,,0.00,WUHU216HW,2013-05-12 21:49:00,
2013-05-12 17:52:00,64.5,32.1,29.73,NNE,23,2.9,5.4,30,0.00,,,0.00,WUHU216HW,2013-05-12 21:52:00,
2013-05-12 17:53:00,64.1,31.8,29.73,NNW,338,2.2,5.4,30,0.00,,,0.00,WUHU216HW,2013-05-12 21:53:00,
2013-05-12 17:54:00,63.6,31.4,29.73,NNW,338,4.5,5.4,30,0.00,,,0.00,WUHU216HW,2013-05-12 21:54:00,
2013-05-12 17:57:00,62.8,30.7,29.73,West,270,5.8,5.8,30,0.00,,,0.00,WUHU216HW,2013-05-12 21:57:00,
2013-05-12 17:58:00,62.5,30.4,29.74,SW,225,5.6,5.8,30,0.00,,,0.00,WUHU216HW,2013-05-12 21:58:00,
2013-05-12 17:59:00,62.3,30.2,29.73,WNW,293,4.7,5.8,30,0.00,,,0.00,WUHU216HW,2013-05-12 21:59:00,
2013-05-12 18:02:00,61.8,31.4,29.74,North,0,4.7,5.8,32,0.00,,,0.00,WUHU216HW,2013-05-12 22:02:00,
2013-05-12 18:03:00,61.4,29.5,29.74,NW,315,5.8,5.8,30,0.00,,,0.00,WUHU216HW,2013-05-12 22:03:00,
2013-05-12 18:04:00,61.4,30.3,29.74,NW,315,4.3,5.8,31,0.00,,,0.00,WUHU216HW,2013-05-12 22:04:00,
2013-05-12 18:07:00,61.0,29.9,29.74,North,0,0.9,5.8,31,0.00,,,0.00,WUHU216HW,2013-05-12 22:07:00,
2013-05-12 18:08:00,61.0,29.9,29.74,NNW,338,4.3,5.8,31,0.00,,,0.00,WUHU216HW,2013-05-12 22:08:00,
2013-05-12 18:09:00,60.9,30.6,29.74,WNW,293,2.0,5.8,32,0.00,,,0.00,WUHU216HW,2013-05-12 22:09:00,
2013-05-12 18:10:00,60.9,31.4,29.74,NNE,23,1.6,5.8,33,0.00,,,0.00,WUHU216HW,2013-05-12 22:10:00,
2013-05-12 18:12:00,60.7,30.5,29.74,NNW,338,3.8,5.8,32,0.00,,,0.00,WUHU216HW,2013-05-12 22:12:00,
2013-05-12 18:13:00,60.7,31.2,29.74,West,270,4.9,4.9,33,0.00,,,0.00,WUHU216HW,2013-05-12 22:13:00,
2013-05-12 18:14:00,60.7,31.2,29.74,NW,315,1.8,4.9,33,0.00,,,0.00,WUHU216HW,2013-05-12 22:14:00,
2013-05-12 18:15:00,60.7,31.2,29.75,NW,315,1.8,4.9,33,0.00,,,0.00,WUHU216HW,2013-05-12 22:15:00,
2013-05-12 18:17:00,60.5,31.1,29.75,NNW,338,4.9,4.9,33,0.00,,,0.00,WUHU216HW,2013-05-12 22:17:00,
2013-05-12 18:18:00,60.3,30.9,29.75,North,0,3.8,4.9,33,0.00,,,0.00,WUHU216HW,2013-05-12 22:18:00,
2013-05-12 18:19:00,60.3,30.9,29.75,NNW,338,1.8,4.9,33,0.00,,,0.00,WUHU216HW,2013-05-12 22:19:00,
2013-05-12 18:20:00,60.4,30.9,29.75,WSW,248,6.3,6.3,33,0.00,,,0.00,WUHU216HW,2013-05-12 22:20:00,
2013-05-12 18:22:00,60.2,30.7,29.75,WNW,293,1.8,6.3,33,0.00,,,0.00,WUHU216HW,2013-05-12 22:22:00,
2013-05-12 18:23:00,60.1,30.6,29.75,WSW,248,3.6,6.3,33,0.00,,,0.00,WUHU216HW,2013-05-12 22:23:00,
2013-05-12 18:25:00,60.1,30.6,29.75,NW,315,1.8,6.3,33,0.00,,,0.00,WUHU216HW,2013-05-12 22:25:00,
2013-05-12 18:27:00,59.7,31.0,29.76,NNW,338,1.8,6.3,34,0.00,,,0.00,WUHU216HW,2013-05-12 22:27:00,
2013-05-12 18:28:00,59.7,31.0,29.76,North,0,1.8,6.3,34,0.00,,,0.00,WUHU216HW,2013-05-12 22:28:00,
2013-05-12 18:29:00,59.7,31.0,29.76,North,0,1.8,6.3,34,0.00,,,0.00,WUHU216HW,2013-05-12 22:29:00,
2013-05-12 18:30:00,59.7,30.3,29.75,NNE,23,2.5,6.3,33,0.00,,,0.00,WUHU216HW,2013-05-12 22:30:00,
2013-05-12 18:32:00,59.3,30.7,29.76,NNW,338,1.6,3.6,34,0.00,,,0.00,WUHU216HW,2013-05-12 22:32:00,
2013-05-12 18:33:00,59.3,30.7,29.76,West,270,5.4,5.4,34,0.00,,,0.00,WUHU216HW,2013-05-12 22:33:00,
2013-05-12 18:34:00,59.3,30.7,29.76,West,270,5.4,5.4,34,0.00,,,0.00,WUHU216HW,2013-05-12 22:34:00,
2013-05-12 18:35:00,59.3,30.0,29.76,NW,315,2.0,5.4,33,0.00,,,0.00,WUHU216HW,2013-05-12 22:35:00,
2013-05-12 18:36:00,59.2,29.9,29.75,NW,315,2.5,5.4,33,0.00,,,0.00,WUHU216HW,2013-05-12 22:36:00,
2013-05-12 18:38:00,59.2,29.9,29.76,West,270,2.9,5.4,33,0.00,,,0.00,WUHU216HW,2013-05-12 22:38:00,
2013-05-12 18:39:00,59.2,30.6,29.76,WNW,293,3.8,5.4,34,0.00,,,0.00,WUHU216HW,2013-05-12 22:39:00,
2013-05-12 18:40:00,59.3,30.7,29.76,West,270,2.2,5.4,34,0.00,,,0.00,WUHU216HW,2013-05-12 22:40:00,
2013-05-12 18:41:00,59.5,30.9,29.76,West,270,3.1,5.4,34,0.00,,,0.00,WUHU216HW,2013-05-12 22:41:00,
2013-05-12 18:43:00,61.0,32.2,29.76,WNW,293,5.4,5.4,34,0.00,,,0.00,WUHU216HW,2013-05-12 22:43:00,
2013-05-12 18:44:00,61.7,32.1,29.76,North,0,3.4,5.4,33,0.00,,,0.00,WUHU216HW,2013-05-12 22:44:00,
2013-05-12 18:45:00,61.9,32.3,29.76,WNW,293,1.1,5.4,33,0.00,,,0.00,WUHU216HW,2013-05-12 22:45:00,
2013-05-12 18:46:00,61.9,32.3,29.76,WNW,293,1.1,5.4,33,0.00,,,0.00,WUHU216HW,2013-05-12 22:46:00,
2013-05-12 18:49:00,62.0,31.6,29.76,NNW,338,0.4,5.4,32,0.00,,,0.00,WUHU216HW,2013-05-12 22:49:00,
2013-05-12 18:50:00,61.9,31.5,29.76,WSW,248,4.0,5.4,32,0.00,,,0.00,WUHU216HW,2013-05-12 22:50:00,
2013-05-12 18:51:00,61.5,31.2,29.76,NNW,338,3.1,5.4,32,0.00,,,0.00,WUHU216HW,2013-05-12 22:51:00,
2013-05-12 18:54:00,61.2,31.6,29.76,North,0,1.1,4.3,33,0.00,,,0.00,WUHU216HW,2013-05-12 22:54:00,
2013-05-12 18:55:00,61.1,31.5,29.76,WNW,293,2.7,4.3,33,0.00,,,0.00,WUHU216HW,2013-05-12 22:55:00,
2013-05-12 18:56:00,60.9,31.3,29.76,NNE,23,2.2,4.3,33,0.00,,,0.00,WUHU216HW,2013-05-12 22:56:00,
2013-05-12 18:59:00,60.5,31.0,29.76,NW,315,3.8,4.3,33,0.00,,,0.00,WUHU216HW,2013-05-12 22:59:00,
2013-05-12 19:00:00,60.3,28.5,29.77,West,270,2.5,4.9,30,0.00,,,0.00,WUHU216HW,2013-05-12 23:00:00,
2013-05-12 19:01:00,60.2,29.2,29.77,WNW,293,5.4,5.4,31,0.00,,,0.00,WUHU216HW,2013-05-12 23:01:00,
2013-05-12 19:04:00,59.4,28.5,29.77,West,270,5.6,5.6,31,0.00,,,0.00,WUHU216HW,2013-05-12 23:04:00,
2013-05-12 19:05:00,59.4,28.5,29.77,WSW,248,4.7,5.6,31,0.00,,,0.00,WUHU216HW,2013-05-12 23:05:00,
2013-05-12 19:07:00,59.1,29.0,29.77,WNW,293,1.8,5.6,32,0.00,,,0.00,WUHU216HW,2013-05-12 23:07:00,
2013-05-12 19:09:00,59.1,29.0,29.77,WNW,293,7.2,7.2,32,0.00,,,0.00,WUHU216HW,2013-05-12 23:09:00,
2013-05-12 19:10:00,58.9,29.6,29.77,West,270,1.8,7.2,33,0.00,,,0.00,WUHU216HW,2013-05-12 23:10:00,
2013-05-12 19:12:00,58.7,29.5,29.77,WNW,293,2.7,7.2,33,0.00,,,0.00,WUHU216HW,2013-05-12 23:12:00,
2013-05-12 19:14:00,58.7,29.5,29.78,West,270,5.1,7.2,33,0.00,,,0.00,WUHU216HW,2013-05-12 23:14:00,
2013-05-12 19:15:00,58.5,29.3,29.78,WNW,293,2.2,7.2,33,0.00,,,0.00,WUHU216HW,2013-05-12 23:15:00,
2013-05-12 19:16:00,58.5,29.3,29.78,WSW,248,4.5,7.2,33,0.00,,,0.00,WUHU216HW,2013-05-12 23:16:00,
2013-05-12 19:17:00,58.4,28.4,29.78,WNW,293,5.1,7.2,32,0.00,,,0.00,WUHU216HW,2013-05-12 23:17:00,
2013-05-12 19:19:00,58.4,28.5,29.78,SW,225,3.8,8.5,32,0.00,,,0.00,WUHU216HW,2013-05-12 23:19:00,
2013-05-12 19:20:00,58.4,28.5,29.78,NW,315,6.7,8.5,32,0.00,,,0.00,WUHU216HW,2013-05-12 23:20:00,
2013-05-12 19:21:00,58.2,27.5,29.78,SW,225,6.3,8.5,31,0.00,,,0.00,WUHU216HW,2013-05-12 23:21:00,
2013-05-12 19:22:00,58.2,27.5,29.78,SW,225,3.8,8.5,31,0.00,,,0.00,WUHU216HW,2013-05-12 23:22:00,
2013-05-12 19:25:00,58.0,28.1,29.78,West,270,4.7,8.5,32,0.00,,,0.00,WUHU216HW,2013-05-12 23:25:00,
2013-05-12 19:26:00,58.0,28.1,29.78,West,270,4.7,8.5,32,0.00,,,0.00,WUHU216HW,2013-05-12 23:26:00,
2013-05-12 19:27:00,58.0,28.1,29.78,West,270,4.7,8.5,32,0.00,,,0.00,WUHU216HW,2013-05-12 23:27:00,
2013-05-12 19:29:00,58.0,28.1,29.78,West,270,4.7,6.7,32,0.00,,,0.00,WUHU216HW,2013-05-12 23:29:00,
2013-05-12 19:31:00,58.0,28.1,29.78,West,270,4.7,6.3,32,0.00,,,0.00,WUHU216HW,2013-05-12 23:31:00,
2013-05-12 19:32:00,58.0,28.1,29.78,West,270,4.7,4.7,32,0.00,,,0.00,WUHU216HW,2013-05-12 23:32:00,
2013-05-12 19:53:00,56.6,27.5,29.81,West,270,3.4,3.4,33,0.00,,,0.00,WUHU216HW,2013-05-12 23:53:00,
2013-05-12 19:54:00,56.6,27.6,29.81,WNW,293,3.8,3.8,33,0.00,,,0.00,WUHU216HW,2013-05-12 23:54:00,
2013-05-12 19:58:00,56.4,27.4,29.80,West,270,2.9,4.5,33,0.00,,,0.00,WUHU216HW,2013-05-12 23:58:00,
2013-05-12 19:59:00,56.4,27.4,29.81,WSW,248,5.4,5.4,33,0.00,,,0.00,WUHU216HW,2013-05-12 23:59:00,
2013-05-12 20:03:00,56.2,27.2,29.81,WNW,293,7.6,7.6,33,0.00,,,0.00,WUHU216HW,2013-05-13 00:03:00,
2013-05-12 20:05:00,56.0,27.1,29.80,West,270,4.0,8.5,33,0.00,,,0.00,WUHU216HW,2013-05-13 00:05:00,
2013-05-12 20:08:00,55.9,27.7,29.81,SW,225,4.7,8.5,34,0.00,,,0.00,WUHU216HW,2013-05-13 00:08:00,
2013-05-12 20:09:00,55.9,27.7,29.81,SW,225,4.7,8.5,34,0.00,,,0.00,WUHU216HW,2013-05-13 00:09:00,
2013-05-12 20:10:00,55.9,27.7,29.81,NNW,338,4.5,8.5,34,0.00,,,0.00,WUHU216HW,2013-05-13 00:10:00,
2013-05-12 20:13:00,55.7,26.8,29.81,WSW,248,2.9,8.5,33,0.00,,,0.00,WUHU216HW,2013-05-13 00:13:00,
2013-05-12 20:14:00,55.7,27.5,29.81,SW,225,6.5,7.4,34,0.00,,,0.00,WUHU216HW,2013-05-13 00:14:00,
2013-05-12 20:15:00,55.7,27.5,29.81,West,270,3.8,7.4,34,0.00,,,0.00,WUHU216HW,2013-05-13 00:15:00,
2013-05-12 20:18:00,55.5,27.4,29.82,WNW,293,2.2,6.5,34,0.00,,,0.00,WUHU216HW,2013-05-13 00:18:00,
2013-05-12 20:19:00,55.5,27.4,29.82,WNW,293,2.2,6.5,34,0.00,,,0.00,WUHU216HW,2013-05-13 00:19:00,
2013-05-12 20:20:00,55.3,27.2,29.82,WNW,293,6.3,6.5,34,0.00,,,0.00,WUHU216HW,2013-05-13 00:20:00,
2013-05-12 20:23:00,55.4,28.6,29.82,North,0,2.0,6.5,36,0.00,,,0.00,WUHU216HW,2013-05-13 00:23:00,
2013-05-12 20:24:00,55.4,28.6,29.82,WSW,248,4.3,6.3,36,0.00,,,0.00,WUHU216HW,2013-05-13 00:24:00,
2013-05-12 20:25:00,55.4,28.6,29.82,WNW,293,3.4,6.3,36,0.00,,,0.00,WUHU216HW,2013-05-13 00:25:00,
2013-05-12 20:29:00,55.2,27.8,29.82,North,0,1.6,6.3,35,0.00,,,0.00,WUHU216HW,2013-05-13 00:29:00,
2013-05-12 20:31:00,55.1,28.4,29.82,WNW,293,2.0,4.9,36,0.00,,,0.00,WUHU216HW,2013-05-13 00:31:00,
2013-05-12 20:34:00,55.1,29.1,29.82,WNW,293,6.0,6.0,37,0.00,,,0.00,WUHU216HW,2013-05-13 00:34:00,
2013-05-12 20:36:00,54.9,28.2,29.83,NW,315,8.5,8.5,36,0.00,,,0.00,WUHU216HW,2013-05-13 00:36:00,
2013-05-12 20:39:00,54.9,28.2,29.83,NNW,338,6.9,10.5,36,0.00,,,0.00,WUHU216HW,2013-05-13 00:39:00,
2013-05-12 20:40:00,54.9,28.2,29.83,NNW,338,6.9,10.5,36,0.00,,,0.00,WUHU216HW,2013-05-13 00:40:00,
2013-05-12 20:41:00,54.9,28.2,29.83,West,270,4.3,10.5,36,0.00,,,0.00,WUHU216HW,2013-05-13 00:41:00,
2013-05-12 20:44:00,54.9,28.9,29.83,North,0,0.9,10.5,37,0.00,,,0.00,WUHU216HW,2013-05-13 00:44:00,
2013-05-12 20:45:00,54.9,28.9,29.83,North,0,0.9,10.5,37,0.00,,,0.00,WUHU216HW,2013-05-13 00:45:00,
2013-05-12 20:46:00,54.7,28.8,29.83,NNE,23,2.0,10.5,37,0.00,,,0.00,WUHU216HW,2013-05-13 00:46:00,
2013-05-12 20:50:00,54.7,28.8,29.84,NW,315,4.0,8.5,37,0.00,,,0.00,WUHU216HW,2013-05-13 00:50:00,
2013-05-12 20:51:00,54.7,28.8,29.84,NW,315,4.0,8.5,37,0.00,,,0.00,WUHU216HW,2013-05-13 00:51:00,
2013-05-12 20:52:00,54.7,28.8,29.84,NW,315,4.0,8.5,37,0.00,,,0.00,WUHU216HW,2013-05-13 00:52:00,
2013-05-12 20:55:00,54.7,28.8,29.84,NW,315,4.0,8.5,37,0.00,,,0.00,WUHU216HW,2013-05-13 00:55:00,
2013-05-12 20:56:00,54.7,28.8,29.84,NW,315,4.0,8.5,37,0.00,,,0.00,WUHU216HW,2013-05-13 00:56:00,
2013-05-12 20:57:00,54.7,28.8,29.84,NW,315,4.0,8.5,37,0.00,,,0.00,WUHU216HW,2013-05-13 00:57:00,
2013-05-12 21:00:00,54.4,29.8,29.84,WNW,293,7.6,7.6,39,0.00,,,0.00,WUHU216HW,2013-05-13 01:00:00,
2013-05-12 21:01:00,54.4,29.1,29.84,West,270,7.2,7.6,38,0.00,,,0.00,WUHU216HW,2013-05-13 01:01:00,
2013-05-12 21:02:00,54.3,29.0,29.85,SW,225,8.5,8.5,38,0.00,,,0.00,WUHU216HW,2013-05-13 01:02:00,
2013-05-12 21:05:00,54.3,28.4,29.85,ENE,68,2.5,8.5,37,0.00,,,0.00,WUHU216HW,2013-05-13 01:05:00,
2013-05-12 21:06:00,54.3,29.0,29.85,WNW,293,4.7,8.5,38,0.00,,,0.00,WUHU216HW,2013-05-13 01:06:00,
2013-05-12 21:07:00,54.3,29.0,29.85,WNW,293,4.7,8.5,38,0.00,,,0.00,WUHU216HW,2013-05-13 01:07:00,
2013-05-12 21:10:00,54.1,28.8,29.85,SW,225,1.8,8.5,38,0.00,,,0.00,WUHU216HW,2013-05-13 01:10:00,
2013-05-12 21:11:00,54.1,28.8,29.85,North,0,1.8,8.5,38,0.00,,,0.00,WUHU216HW,2013-05-13 01:11:00,
2013-05-12 21:12:00,54.1,28.8,29.85,NNW,338,3.4,7.6,38,0.00,,,0.00,WUHU216HW,2013-05-13 01:12:00,
2013-05-12 21:13:00,54.1,28.8,29.85,NNW,338,3.4,7.6,38,0.00,,,0.00,WUHU216HW,2013-05-13 01:13:00,
2013-05-12 21:16:00,53.9,28.7,29.85,NW,315,2.5,4.9,38,0.00,,,0.00,WUHU216HW,2013-05-13 01:16:00,
2013-05-12 21:17:00,53.7,28.5,29.85,WNW,293,4.5,4.5,38,0.00,,,0.00,WUHU216HW,2013-05-13 01:17:00,
2013-05-12 21:18:00,53.7,27.8,29.85,West,270,7.4,7.4,37,0.00,,,0.00,WUHU216HW,2013-05-13 01:18:00,
2013-05-12 21:21:00,53.5,27.6,29.86,WSW,248,4.5,7.4,37,0.00,,,0.00,WUHU216HW,2013-05-13 01:21:00,
2013-05-12 21:22:00,53.5,27.6,29.86,WSW,248,4.5,7.4,37,0.00,,,0.00,WUHU216HW,2013-05-13 01:22:00,
2013-05-12 21:24:00,53.4,28.2,29.85,West,270,2.7,7.4,38,0.00,,,0.00,WUHU216HW,2013-05-13 01:24:00,
2013-05-12 21:26:00,53.4,27.6,29.86,WNW,293,11.2,11.2,37,0.00,,,0.00,WUHU216HW,2013-05-13 01:26:00,
2013-05-12 21:27:00,53.4,27.6,29.86,WNW,293,11.2,11.2,37,0.00,,,0.00,WUHU216HW,2013-05-13 01:27:00,
2013-05-12 21:29:00,53.2,27.4,29.86,West,270,6.9,11.2,37,0.00,,,0.00,WUHU216HW,2013-05-13 01:29:00,
2013-05-12 21:31:00,53.2,27.4,29.86,NW,315,1.1,11.2,37,0.00,,,0.00,WUHU216HW,2013-05-13 01:31:00,
2013-05-12 21:32:00,53.2,27.4,29.86,NW,315,1.1,11.2,37,0.00,,,0.00,WUHU216HW,2013-05-13 01:32:00,
2013-05-12 21:33:00,53.2,27.4,29.87,NW,315,7.6,11.2,37,0.00,,,0.00,WUHU216HW,2013-05-13 01:33:00,
2013-05-12 21:34:00,53.0,27.2,29.87,WSW,248,2.2,11.2,37,0.00,,,0.00,WUHU216HW,2013-05-13 01:34:00,
2013-05-12 21:36:00,53.0,27.2,29.87,WSW,248,4.0,9.2,37,0.00,,,0.00,WUHU216HW,2013-05-13 01:36:00,
2013-05-12 21:37:00,53.0,27.2,29.87,WSW,248,4.0,9.2,37,0.00,,,0.00,WUHU216HW,2013-05-13 01:37:00,
2013-05-12 21:38:00,52.8,27.0,29.87,NW,315,5.4,9.2,37,0.00,,,0.00,WUHU216HW,2013-05-13 01:38:00,
2013-05-12 21:39:00,52.6,27.5,29.87,NNE,23,4.0,7.8,38,0.00,,,0.00,WUHU216HW,2013-05-13 01:39:00,
2013-05-12 21:41:00,52.6,26.8,29.87,WNW,293,5.4,7.8,37,0.00,,,0.00,WUHU216HW,2013-05-13 01:41:00,
2013-05-12 21:42:00,52.6,26.8,29.87,WNW,293,5.4,7.8,37,0.00,,,0.00,WUHU216HW,2013-05-13 01:42:00,
2013-05-12 21:43:00,52.6,26.8,29.87,SW,225,4.5,6.3,37,0.00,,,0.00,WUHU216HW,2013-05-13 01:43:00,
2013-05-12 21:45:00,52.6,26.8,29.87,West,270,1.8,6.3,37,0.00,,,0.00,WUHU216HW,2013-05-13 01:45:00,
2013-05-12 21:46:00,52.6,27.5,29.88,SSE,158,1.8,6.3,38,0.00,,,0.00,WUHU216HW,2013-05-13 01:46:00,
2013-05-12 21:47:00,52.6,27.5,29.88,SSE,158,1.8,6.3,38,0.00,,,0.00,WUHU216HW,2013-05-13 01:47:00,
2013-05-12 21:48:00,52.5,27.4,29.88,WNW,293,6.9,12.5,38,0.00,,,0.00,WUHU216HW,2013-05-13 01:48:00,
2013-05-12 21:50:00,52.5,27.4,29.88,West,270,6.3,12.5,38,0.00,,,0.00,WUHU216HW,2013-05-13 01:50:00,
2013-05-12 21:52:00,52.5,28.1,29.88,WNW,293,3.4,12.5,39,0.00,,,0.00,WUHU216HW,2013-05-13 01:52:00,
2013-05-12 21:53:00,52.3,27.2,29.88,West,270,6.5,12.5,38,0.00,,,0.00,WUHU216HW,2013-05-13 01:53:00,
2013-05-12 21:55:00,52.3,27.9,29.88,North,0,0.9,12.5,39,0.00,,,0.00,WUHU216HW,2013-05-13 01:55:00,
2013-05-12 21:57:00,52.1,27.7,29.88,West,270,4.7,12.5,39,0.00,,,0.00,WUHU216HW,2013-05-13 01:57:00,
2013-05-12 21:58:00,51.9,28.1,29.88,WNW,293,4.3,6.5,40,0.00,,,0.00,WUHU216HW,2013-05-13 01:58:00,
2013-05-12 22:00:00,51.9,27.5,29.88,West,270,3.6,6.5,39,0.00,,,0.00,WUHU216HW,2013-05-13 02:00:00,
2013-05-12 22:02:00,51.9,28.1,29.88,WNW,293,5.8,6.5,40,0.00,,,0.00,WUHU216HW,2013-05-13 02:02:00,
2013-05-12 22:03:00,51.9,28.1,29.88,NW,315,1.6,6.5,40,0.00,,,0.00,WUHU216HW,2013-05-13 02:03:00,
2013-05-12 22:05:00,51.7,28.0,29.88,West,270,3.8,6.3,40,0.00,,,0.00,WUHU216HW,2013-05-13 02:05:00,
2013-05-12 22:07:00,51.7,28.0,29.88,SW,225,2.5,5.8,40,0.00,,,0.00,WUHU216HW,2013-05-13 02:07:00,
2013-05-12 22:08:00,51.6,27.9,29.88,NNW,338,0.9,5.8,40,0.00,,,0.00,WUHU216HW,2013-05-13 02:08:00,
2013-05-12 22:09:00,51.6,28.5,29.88,WNW,293,6.3,6.3,41,0.00,,,0.00,WUHU216HW,2013-05-13 02:09:00,
2013-05-12 22:10:00,51.6,27.9,29.88,WSW,248,4.0,6.3,40,0.00,,,0.00,WUHU216HW,2013-05-13 02:10:00,
2013-05-12 22:12:00,51.4,27.7,29.89,West,270,4.9,6.3,40,0.00,,,0.00,WUHU216HW,2013-05-13 02:12:00,
2013-05-12 22:13:00,51.4,27.7,29.89,North,0,1.3,6.3,40,0.00,,,0.00,WUHU216HW,2013-05-13 02:13:00,
2013-05-12 22:14:00,51.4,28.3,29.89,SSW,203,4.0,6.3,41,0.00,,,0.00,WUHU216HW,2013-05-13 02:14:00,
2013-05-12 22:15:00,51.4,28.3,29.89,NW,315,6.3,6.3,41,0.00,,,0.00,WUHU216HW,2013-05-13 02:15:00,
2013-05-12 22:17:00,51.2,28.1,29.89,West,270,3.4,6.3,41,0.00,,,0.00,WUHU216HW,2013-05-13 02:17:00,
2013-05-12 22:18:00,51.2,28.1,29.89,NNE,23,1.6,6.3,41,0.00,,,0.00,WUHU216HW,2013-05-13 02:18:00,
2013-05-12 22:19:00,51.2,28.1,29.89,WNW,293,4.7,6.3,41,0.00,,,0.00,WUHU216HW,2013-05-13 02:19:00,
2013-05-12 22:20:00,51.2,28.1,29.89,WNW,293,2.9,6.3,41,0.00,,,0.00,WUHU216HW,2013-05-13 02:20:00,
2013-05-12 22:23:00,51.0,27.9,29.89,North,0,1.8,6.9,41,0.00,,,0.00,WUHU216HW,2013-05-13 02:23:00,
2013-05-12 22:24:00,51.0,28.5,29.89,WNW,293,4.5,6.9,42,0.00,,,0.00,WUHU216HW,2013-05-13 02:24:00,
2013-05-12 22:25:00,51.0,28.5,29.89,South,180,4.3,6.9,42,0.00,,,0.00,WUHU216HW,2013-05-13 02:25:00,
2013-05-12 22:28:00,50.8,28.4,29.89,NNW,338,2.0,7.8,42,0.00,,,0.00,WUHU216HW,2013-05-13 02:28:00,
2013-05-12 22:30:00,50.8,28.4,29.89,NW,315,5.4,7.8,42,0.00,,,0.00,WUHU216HW,2013-05-13 02:30:00,
2013-05-12 22:33:00,50.7,28.9,29.90,WNW,293,6.9,7.8,43,0.00,,,0.00,WUHU216HW,2013-05-13 02:33:00,
2013-05-12 22:35:00,50.7,28.3,29.90,WSW,248,3.6,7.8,42,0.00,,,0.00,WUHU216HW,2013-05-13 02:35:00,
2013-05-12 22:38:00,50.7,28.9,29.90,WNW,293,9.6,9.6,43,0.00,,,0.00,WUHU216HW,2013-05-13 02:38:00,
2013-05-12 22:40:00,50.5,28.7,29.90,North,0,1.3,9.6,43,0.00,,,0.00,WUHU216HW,2013-05-13 02:40:00,
2013-05-12 22:41:00,50.5,28.7,29.90,North,0,1.3,9.6,43,0.00,,,0.00,WUHU216HW,2013-05-13 02:41:00,
2013-05-12 22:43:00,50.5,28.1,29.90,WNW,293,7.8,9.6,42,0.00,,,0.00,WUHU216HW,2013-05-13 02:43:00,
2013-05-12 22:44:00,50.5,28.1,29.90,WNW,293,7.8,9.6,42,0.00,,,0.00,WUHU216HW,2013-05-13 02:44:00,
2013-05-12 22:45:00,50.5,28.1,29.90,NNW,338,1.8,9.6,42,0.00,,,0.00,WUHU216HW,2013-05-13 02:45:00,
2013-05-12 22:46:00,50.5,28.1,29.90,NNW,338,1.8,9.6,42,0.00,,,0.00,WUHU216HW,2013-05-13 02:46:00,
2013-05-12 22:48:00,50.3,27.9,29.90,WNW,293,1.3,9.6,42,0.00,,,0.00,WUHU216HW,2013-05-13 02:48:00,
2013-05-12 22:49:00,50.3,27.9,29.90,WNW,293,1.3,9.6,42,0.00,,,0.00,WUHU216HW,2013-05-13 02:49:00,
2013-05-12 22:50:00,50.3,27.9,29.90,West,270,5.4,9.6,42,0.00,,,0.00,WUHU216HW,2013-05-13 02:50:00,
2013-05-12 22:51:00,50.3,27.9,29.90,West,270,3.4,7.8,42,0.00,,,0.00,WUHU216HW,2013-05-13 02:51:00,
2013-05-12 22:53:00,50.1,28.3,29.90,NW,315,4.5,5.4,43,0.00,,,0.00,WUHU216HW,2013-05-13 02:53:00,
2013-05-12 22:54:00,50.1,28.3,29.90,NW,315,4.5,5.4,43,0.00,,,0.00,WUHU216HW,2013-05-13 02:54:00,
2013-05-12 22:55:00,50.1,28.3,29.90,West,270,8.5,8.5,43,0.00,,,0.00,WUHU216HW,2013-05-13 02:55:00,
2013-05-12 22:56:00,50.1,28.3,29.90,West,270,8.5,8.5,43,0.00,,,0.00,WUHU216HW,2013-05-13 02:56:00,
2013-05-12 22:58:00,49.9,28.1,29.90,NW,315,1.6,8.5,43,0.00,,,0.00,WUHU216HW,2013-05-13 02:58:00,
2013-05-12 22:59:00,49.9,28.1,29.90,NW,315,1.6,8.5,43,0.00,,,0.00,WUHU216HW,2013-05-13 02:59:00,
2013-05-12 23:00:00,49.9,28.1,29.90,West,270,4.7,8.5,43,0.00,,,0.00,WUHU216HW,2013-05-13 03:00:00,
2013-05-12 23:01:00,49.9,28.1,29.90,WNW,293,6.3,8.5,43,0.00,,,0.00,WUHU216HW,2013-05-13 03:01:00,
2013-05-12 23:04:00,49.8,28.6,29.90,West,270,0.7,8.5,44,0.00,,,0.00,WUHU216HW,2013-05-13 03:04:00,
2013-05-12 23:05:00,49.8,28.1,29.90,NNW,338,2.2,8.5,43,0.00,,,0.00,WUHU216HW,2013-05-13 03:05:00,
2013-05-12 23:06:00,49.8,28.6,29.91,SW,225,0.2,6.3,44,0.00,,,0.00,WUHU216HW,2013-05-13 03:06:00,
2013-05-12 23:09:00,49.8,28.6,29.91,West,270,4.3,6.3,44,0.00,,,0.00,WUHU216HW,2013-05-13 03:09:00,
2013-05-12 23:10:00,49.8,28.6,29.91,West,270,1.1,6.3,44,0.00,,,0.00,WUHU216HW,2013-05-13 03:10:00,
2013-05-12 23:12:00,49.6,28.4,29.91,WSW,248,2.9,4.7,44,0.00,,,0.00,WUHU216HW,2013-05-13 03:12:00,
2013-05-12 23:14:00,49.4,28.3,29.91,WSW,248,2.5,4.3,44,0.00,,,0.00,WUHU216HW,2013-05-13 03:14:00,
2013-05-12 23:15:00,49.4,28.3,29.91,SW,225,1.6,4.3,44,0.00,,,0.00,WUHU216HW,2013-05-13 03:15:00,
2013-05-12 23:16:00,49.4,28.3,29.91,SW,225,1.6,4.3,44,0.00,,,0.00,WUHU216HW,2013-05-13 03:16:00,
2013-05-12 23:17:00,49.4,28.3,29.91,WNW,293,4.3,4.3,44,0.00,,,0.00,WUHU216HW,2013-05-13 03:17:00,
2013-05-12 23:19:00,49.2,28.6,29.91,WNW,293,4.0,4.3,45,0.00,,,0.00,WUHU216HW,2013-05-13 03:19:00,
2013-05-12 23:20:00,49.2,28.6,29.91,WNW,293,4.0,4.3,45,0.00,,,0.00,WUHU216HW,2013-05-13 03:20:00,
2013-05-12 23:21:00,49.2,28.6,29.91,West,270,3.4,4.3,45,0.00,,,0.00,WUHU216HW,2013-05-13 03:21:00,
2013-05-12 23:22:00,49.0,28.5,29.91,WSW,248,1.8,4.3,45,0.00,,,0.00,WUHU216HW,2013-05-13 03:22:00,
2013-05-12 23:24:00,49.0,28.5,29.91,NNW,338,0.9,4.3,45,0.00,,,0.00,WUHU216HW,2013-05-13 03:24:00,
2013-05-12 23:25:00,49.0,28.5,29.91,NNW,338,0.9,4.3,45,0.00,,,0.00,WUHU216HW,2013-05-13 03:25:00,
2013-05-12 23:26:00,49.0,28.5,29.91,NNW,338,1.1,4.3,45,0.00,,,0.00,WUHU216HW,2013-05-13 03:26:00,
2013-05-12 23:27:00,49.0,28.5,29.91,WNW,293,1.8,4.0,45,0.00,,,0.00,WUHU216HW,2013-05-13 03:27:00,
2013-05-12 23:30:00,49.0,28.5,29.91,West,270,0.4,4.7,45,0.00,,,0.00,WUHU216HW,2013-05-13 03:30:00,
2013-05-12 23:31:00,48.9,28.4,29.91,WSW,248,2.9,4.7,45,0.00,,,0.00,WUHU216HW,2013-05-13 03:31:00,
2013-05-12 23:32:00,48.9,28.4,29.91,WSW,248,1.8,4.7,45,0.00,,,0.00,WUHU216HW,2013-05-13 03:32:00,
2013-05-12 23:35:00,48.7,28.2,29.91,SW,225,0.2,4.7,45,0.00,,,0.00,WUHU216HW,2013-05-13 03:35:00,
2013-05-12 23:36:00,48.7,28.7,29.91,West,270,2.5,4.7,46,0.00,,,0.00,WUHU216HW,2013-05-13 03:36:00,
2013-05-12 23:38:00,48.7,28.7,29.91,North,0,3.4,3.4,46,0.00,,,0.00,WUHU216HW,2013-05-13 03:38:00,
2013-05-12 23:40:00,48.5,28.6,29.91,South,180,1.3,3.4,46,0.00,,,0.00,WUHU216HW,2013-05-13 03:40:00,
2013-05-12 23:41:00,48.5,28.6,29.91,WSW,248,2.7,3.4,46,0.00,,,0.00,WUHU216HW,2013-05-13 03:41:00,
2013-05-12 23:43:00,48.5,28.6,29.92,SW,225,0.9,3.4,46,0.00,,,0.00,WUHU216HW,2013-05-13 03:43:00,
2013-05-12 23:45:00,48.5,28.6,29.91,WNW,293,2.5,3.4,46,0.00,,,0.00,WUHU216HW,2013-05-13 03:45:00,
2013-05-12 23:46:00,48.3,28.4,29.92,SW,225,0.9,3.4,46,0.00,,,0.00,WUHU216HW,2013-05-13 03:46:00,
2013-05-12 23:47:00,48.3,28.4,29.92,SW,225,0.9,3.4,46,0.00,,,0.00,WUHU216HW,2013-05-13 03:47:00,
2013-05-12 23:48:00,48.3,28.9,29.92,West,270,2.9,3.6,47,0.00,,,0.00,WUHU216HW,2013-05-13 03:48:00,
2013-05-12 23:50:00,48.3,28.9,29.91,WNW,293,2.0,3.6,47,0.00,,,0.00,WUHU216HW,2013-05-13 03:50:00,
2013-05-12 23:51:00,48.3,28.9,29.91,SW,225,0.9,3.6,47,0.00,,,0.00,WUHU216HW,2013-05-13 03:51:00,
2013-05-12 23:52:00,48.3,28.9,29.91,SW,225,0.9,3.6,47,0.00,,,0.00,WUHU216HW,2013-05-13 03:52:00,
2013-05-12 23:53:00,48.3,28.9,29.92,West,270,5.4,5.4,47,0.00,,,0.00,WUHU216HW,2013-05-13 03:53:00,
2013-05-12 23:55:00,48.1,28.7,29.91,WNW,293,3.1,5.4,47,0.00,,,0.00,WUHU216HW,2013-05-13 03:55:00,
2013-05-12 23:56:00,48.1,28.7,29.92,North,0,1.8,5.4,47,0.00,,,0.00,WUHU216HW,2013-05-13 03:56:00,
2013-05-12 23:57:00,48.1,28.7,29.92,North,0,1.8,5.4,47,0.00,,,0.00,WUHU216HW,2013-05-13 03:57:00,
2013-05-12 23:58:00,48.1,28.7,29.92,WNW,293,3.4,5.4,47,0.00,,,0.00,WUHU216HW,2013-05-13 03:58:00,